GFSNW_925_thetae_042.txt.gz
Theta_e
301 300 300 301 303 301 301 304 305 309 310 316 314 316 313 313 317 318 319 320 323 323 314 314 313 314 313 310 313 315 316 313 313 316 318 316 315 317 315 316 316 315 313 316
302 300 300 300 302 301 302 305 306 310 310 314 314 314 314 312 317 317 318 320 321 320 316 315 314 313 313 313 313 315 317 315 314 315 314 316 319 317 316 313 311 316 315 316
302 300 300 301 302 301 302 305 306 310 310 310 311 313 313 313 315 315 316 318 320 321 320 315 314 314 317 317 314 316 315 315 314 315 314 315 319 317 316 316 315 315 314 314
302 300 300 301 302 301 302 305 305 309 312 310 311 310 312 313 313 315 315 316 319 320 321 318 317 319 320 317 317 316 315 316 315 314 315 316 316 317 315 315 315 317 316 314
302 300 299 301 300 301 301 305 306 308 309 308 310 312 311 313 312 316 315 317 316 318 320 319 318 320 319 318 316 316 313 316 314 317 315 315 319 316 315 315 315 314 314 313
301 300 299 300 300 300 301 304 304 307 308 310 310 310 311 311 313 313 315 315 315 316 316 316 315 315 316 316 317 315 314 314 313 317 312 314 314 313 315 314 313 314 315 313
301 300 300 301 300 300 301 302 304 309 309 312 310 309 310 311 312 314 314 314 315 314 315 315 315 314 316 316 318 314 313 312 309 311 310 313 314 312 313 313 312 311 311 309
300 300 301 300 299 300 300 301 305 307 303 310 311 311 310 311 312 313 314 314 313 311 315 317 319 317 317 316 315 316 312 310 312 313 313 312 315 311 311 311 310 308 308 309
299 300 301 299 300 300 299 301 300 304 310 308 310 311 311 312 311 311 312 312 311 315 315 312 319 321 320 319 317 312 311 309 312 308 313 314 313 312 308 309 311 308 309 309
300 299 300 300 300 300 298 299 299 300 308 311 310 311 311 311 311 311 310 312 319 314 306 312 315 317 318 319 319 316 311 309 310 303 309 312 311 310 308 311 311 308 309 309
300 300 298 299 299 300 298 297 298 299 307 308 310 310 311 311 311 311 310 313 314 312 315 316 314 310 315 315 316 317 318 315 309 306 308 318 308 310 310 309 308 308 307 307
299 299 299 299 299 299 298 298 298 299 302 307 306 306 306 308 310 310 310 313 314 314 317 311 308 310 305 313 317 312 318 316 315 315 315 311 309 309 308 306 308 308 308 308
299 298 299 298 297 298 297 298 299 298 302 304 306 306 311 311 309 312 312 312 316 315 313 312 312 313 309 314 313 315 313 310 313 313 313 312 312 310 309 310 310 308 308 305
297 297 297 297 296 297 298 298 300 299 305 304 305 310 310 314 315 312 313 313 316 313 312 310 309 312 311 309 314 314 312 311 313 312 313 312 310 307 305 303 302 302 300 299
297 296 296 296 296 298 298 298 298 301 304 307 308 308 310 311 316 316 315 315 314 312 312 305 311 312 312 308 311 311 311 312 313 314 312 311 310 304 302 302 301 300 299 298
295 295 297 298 298 298 299 300 299 298 304 306 307 308 309 313 317 317 315 316 313 311 311 307 313 313 315 315 314 312 311 310 310 313 310 305 303 300 300 299 298 297 297 296
296 296 296 296 297 298 301 302 301 303 304 307 305 305 309 315 316 314 315 312 312 313 312 308 312 313 312 305 313 312 310 310 307 304 304 304 303 301 297 296 296 295 294 294
298 298 297 297 298 298 300 301 303 304 304 306 305 308 310 312 315 315 311 311 310 312 309 305 309 310 304 313 310 307 306 305 303 302 301 303 298 297 295 294 294 294 293 292
298 298 298 300 300 300 300 302 305 304 304 303 302 310 312 308 308 311 310 308 309 309 307 309 310 306 314 310 308 307 305 307 301 299 298 298 297 295 295 294 293 293 293 292
298 300 302 300 301 303 304 304 305 305 308 308 306 308 313 309 303 307 308 306 309 314 311 309 308 311 306 303 304 303 301 300 299 299 297 296 296 295 294 294 293 293 292 291
301 301 301 303 304 304 303 303 303 305 306 304 306 307 313 308 308 307 303 307 307 315 313 310 310 311 306 303 303 302 300 300 301 300 298 297 296 295 293 292 291 290 290 290
302 305 305 305 303 302 304 304 302 304 308 304 306 307 309 304 306 306 305 307 306 314 307 312 313 306 303 302 301 301 300 299 299 298 297 296 295 293 291 290 289 289 287 286
303 302 301 303 299 306 307 307 307 306 302 302 302 305 302 303 303 303 304 309 310 303 311 311 305 304 303 302 301 300 299 298 297 296 294 293 291 290 290 289 288 286 285 284
298 300 301 297 298 301 301 302 303 299 298 300 300 302 304 300 304 303 310 305 305 308 308 306 302 301 299 298 298 297 296 294 294 292 291 290 289 288 287 287 286 285 284 282
298 299 301 300 299 298 298 297 298 297 297 298 301 302 304 303 304 303 305 308 307 305 304 301 299 297 296 295 294 293 293 292 291 289 288 287 287 286 284 283 283 283 282 281
296 296 298 297 298 297 297 296 298 297 296 297 299 302 305 305 304 302 301 304 300 299 298 297 296 295 294 294 293 292 291 290 289 288 287 286 285 285 282 281 281 281 281 280
295 296 292 293 295 293 293 293 294 294 299 302 301 296 297 297 298 295 294 294 295 293 296 295 294 294 293 292 291 290 290 289 288 287 287 285 284 282 281 281 280 279 279 279

GFSNW_925_thetae_045.txt.gz
Theta_e
304 304 303 302 301 301 303 303 305 304 305 311 311 312 313 313 315 316 319 320 323 324 316 315 315 316 316 311 314 316 317 319 319 319 317 316 318 321 320 325 321 318 319 320
304 304 303 302 301 301 303 302 304 305 307 310 311 311 313 313 314 316 318 320 320 321 319 315 315 314 313 312 314 318 318 317 318 317 316 317 320 318 316 316 316 320 328 322
303 304 303 302 301 300 302 303 304 307 307 308 309 312 313 314 312 314 317 318 319 320 319 317 315 315 315 314 314 315 316 317 319 319 318 318 320 319 317 320 322 322 320 320
302 304 303 302 301 301 301 304 305 307 309 307 309 311 311 313 314 313 315 317 318 320 319 319 316 317 319 317 317 316 318 319 317 315 313 316 318 319 318 319 320 323 322 317
302 303 303 301 301 301 301 304 306 306 308 307 308 311 312 312 312 313 315 317 317 317 321 319 320 319 319 319 317 318 315 319 316 316 315 316 319 317 317 316 316 316 316 317
302 303 302 301 301 301 301 302 302 305 308 308 307 308 311 311 313 312 313 315 316 317 318 317 317 316 316 318 319 317 316 318 318 320 313 315 319 317 317 317 316 318 319 319
302 303 302 301 301 300 301 302 303 306 308 308 307 307 309 310 311 312 312 313 313 313 314 315 315 314 315 316 317 317 317 316 314 319 313 322 319 312 314 317 316 314 313 313
301 303 302 300 302 301 301 302 303 306 307 309 308 308 308 310 311 311 312 314 314 312 313 315 320 318 317 317 316 316 314 314 315 321 319 317 315 314 315 315 316 313 314 311
299 302 301 300 302 301 301 301 302 305 306 308 309 309 308 310 311 311 312 312 312 314 313 313 316 325 321 320 318 312 310 312 322 313 321 323 319 313 310 311 317 312 311 311
303 302 300 301 301 300 300 300 302 303 307 307 309 311 310 309 310 311 312 313 314 313 310 315 317 319 320 323 321 319 316 314 319 314 321 319 314 311 310 318 319 311 311 312
302 301 300 300 301 300 300 299 301 301 305 306 307 309 310 310 309 311 310 314 314 314 314 316 317 317 319 319 318 319 321 320 319 314 320 323 311 309 316 318 310 311 311 312
301 300 300 301 300 300 300 298 299 298 300 304 303 305 305 307 309 310 311 312 312 313 316 314 313 316 312 318 322 313 322 319 321 320 322 317 311 315 311 309 312 310 312 310
301 301 301 301 300 300 298 298 297 297 297 301 304 306 308 309 308 309 312 311 314 313 314 314 316 316 313 316 316 316 313 312 319 318 317 315 313 311 311 310 310 309 310 309
301 300 300 300 300 298 297 298 297 297 300 302 305 306 306 309 310 310 310 312 314 314 313 311 311 316 313 315 317 318 316 314 316 316 313 313 314 312 311 308 307 306 305 305
299 299 299 299 299 297 297 299 297 297 300 304 304 306 307 309 309 311 310 312 315 314 314 309 316 312 312 309 312 314 313 315 317 319 316 317 316 314 307 307 307 305 303 301
298 298 298 297 297 296 297 299 298 298 298 302 304 306 307 311 313 315 315 314 314 315 315 313 314 313 315 315 317 314 312 313 313 315 311 307 304 303 304 304 303 301 301 300
296 296 295 295 297 297 299 299 299 299 300 303 303 305 306 310 314 313 315 315 314 315 314 312 315 315 314 309 317 314 312 312 309 305 307 307 304 306 300 300 299 297 297 296
295 295 295 296 297 297 299 302 300 300 300 304 306 305 308 312 314 315 313 315 314 313 314 308 313 311 307 316 314 310 308 307 306 303 303 304 300 298 297 297 297 296 295 294
296 297 297 298 298 299 299 302 301 301 302 303 302 307 312 309 308 308 309 310 313 310 311 313 313 310 318 314 310 308 306 307 303 300 300 300 300 297 296 296 296 295 294 293
297 297 298 298 298 299 301 304 304 304 304 306 304 307 312 309 304 308 303 305 310 315 313 310 310 313 307 304 304 306 303 301 300 300 299 297 297 296 296 295 295 294 293 292
297 296 297 299 299 302 303 302 303 304 305 305 306 308 313 308 310 308 303 307 306 315 313 314 313 314 307 304 303 301 301 301 301 301 299 298 297 296 294 294 293 293 292 290
300 302 301 303 303 301 303 304 302 303 308 304 306 308 309 305 306 307 304 308 306 315 307 311 314 305 304 303 302 301 301 300 299 298 297 296 294 294 293 292 292 290 288 286
302 300 300 302 300 304 305 308 307 306 302 302 303 305 303 303 304 303 305 311 311 303 310 308 305 302 300 301 301 299 299 298 296 295 294 293 292 291 291 289 288 287 286 285
297 300 299 301 300 301 301 302 303 301 298 299 301 302 304 301 304 303 311 305 306 310 308 306 301 299 297 297 297 296 295 293 293 292 291 290 290 289 288 287 287 285 284 284
298 297 300 300 299 297 297 297 298 296 297 299 302 303 304 304 305 304 306 308 305 302 301 300 298 297 296 295 294 293 292 291 290 289 288 287 287 286 286 285 285 283 282 282
294 291 293 294 294 292 292 292 295 295 296 297 300 303 305 302 300 299 297 301 298 296 294 292 296 295 294 293 292 291 290 289 289 288 287 286 285 284 283 282 281 281 281 280
295 292 289 289 290 290 290 290 291 292 298 298 297 294 294 295 294 292 291 290 289 289 289 294 294 294 292 292 291 290 289 288 287 286 285 284 282 282 282 282 280 280 279 279

GFSNW_925_thetae_048.txt.gz
Theta_e
304 303 304 304 303 302 302 302 305 304 305 307 308 310 313 310 312 318 320 322 323 323 318 317 316 317 317 317 318 319 319 320 321 321 321 321 321 322 324 324 322 323 324 323
304 303 304 304 303 302 302 302 304 304 304 306 309 309 312 311 312 316 319 321 322 323 322 319 318 318 318 317 318 319 320 320 321 320 320 320 321 321 321 322 322 322 330 323
303 302 303 304 304 302 301 302 305 306 306 307 309 312 310 311 311 312 317 319 321 322 322 320 318 317 317 316 318 317 320 319 319 321 319 319 321 320 320 321 324 322 324 321
300 304 303 304 304 302 302 303 306 306 308 309 310 311 310 311 311 312 315 318 320 322 322 320 320 317 320 317 317 317 320 319 320 318 317 317 317 318 320 320 321 322 322 322
301 302 303 303 304 302 301 301 306 308 307 307 307 311 311 310 310 311 314 316 318 320 321 319 322 320 319 321 321 319 320 319 320 320 319 318 318 317 318 319 319 321 321 321
301 302 303 302 304 301 301 301 304 307 307 308 308 311 310 310 310 311 311 314 315 318 318 318 318 317 318 318 320 323 322 320 321 320 320 319 322 320 319 320 321 322 322 321
301 301 302 302 303 300 300 302 305 308 308 309 308 306 308 310 310 312 312 312 316 316 315 316 317 314 317 319 321 320 323 322 323 322 320 330 319 319 320 320 321 321 320 320
302 301 302 301 303 300 301 302 305 307 310 308 308 307 307 308 310 312 311 313 313 315 314 314 312 316 316 320 320 322 322 323 324 331 324 320 318 317 319 321 321 320 320 319
302 302 302 300 302 300 301 302 303 308 310 308 306 309 308 309 312 312 312 312 315 315 317 318 319 314 311 318 322 317 320 321 327 321 325 334 321 319 318 318 323 319 318 318
301 301 301 301 301 300 301 302 303 306 307 306 307 309 309 308 310 312 312 315 316 315 318 323 320 317 316 318 324 322 321 321 327 327 329 324 320 318 316 321 324 319 318 318
301 301 300 302 301 301 301 301 302 306 307 307 308 308 309 309 311 314 312 316 317 317 319 320 321 324 319 320 319 323 323 325 327 326 331 330 317 315 320 322 320 319 319 318
301 300 302 300 301 300 301 301 302 303 306 303 302 304 306 307 309 312 314 312 314 314 316 319 318 325 322 318 323 319 323 323 326 323 325 323 318 320 318 320 320 318 319 317
300 302 301 300 301 300 300 300 301 302 303 304 303 303 305 307 309 311 314 313 312 314 314 318 320 326 322 329 323 320 319 318 323 322 321 321 320 318 317 316 318 316 317 317
302 301 300 301 302 300 299 299 300 302 302 303 303 303 304 307 309 311 311 312 315 315 316 319 320 323 317 324 320 322 320 318 321 322 322 318 319 319 319 315 314 314 314 315
300 300 301 301 300 299 299 299 299 300 302 304 304 304 305 303 308 311 311 313 316 320 320 315 318 318 320 318 318 323 318 320 324 324 322 322 322 321 319 317 315 314 314 313
301 300 299 298 298 298 298 300 297 300 300 302 305 306 305 304 309 311 313 315 314 317 318 320 319 318 319 324 322 318 318 317 319 320 316 316 313 311 316 316 314 312 311 311
300 299 298 298 298 299 300 300 300 299 299 303 304 308 307 306 307 315 315 315 315 316 316 318 319 321 318 322 323 319 318 317 316 313 311 314 310 313 308 309 308 306 308 307
299 298 298 297 297 298 301 302 298 300 302 304 306 307 311 311 314 315 315 316 317 318 318 317 318 318 318 322 318 319 316 314 313 312 309 309 306 305 305 304 304 305 304 303
297 298 297 297 298 301 299 301 299 302 304 305 303 309 314 312 313 312 310 314 313 315 318 318 319 319 322 318 318 318 315 314 314 306 306 305 306 304 302 303 303 303 301 300
297 297 299 299 299 297 299 299 302 302 304 304 306 306 310 312 308 311 313 307 312 314 317 317 320 319 313 309 309 310 310 308 307 308 307 305 304 303 302 301 301 299 298 297
299 299 300 300 298 300 303 304 304 304 304 305 309 308 308 310 312 312 310 312 307 314 315 321 318 315 306 305 307 306 304 304 306 307 307 305 304 302 301 298 298 297 294 293
298 299 300 301 302 304 305 305 304 305 309 307 309 309 306 308 310 310 306 313 307 315 308 315 312 306 302 302 303 303 304 305 305 304 304 302 301 300 298 296 294 292 290 288
300 302 302 304 302 304 307 308 309 309 302 302 305 307 309 306 305 306 309 315 315 305 310 309 303 300 300 298 298 297 296 296 296 297 296 295 294 293 292 290 289 288 288 286
301 302 302 305 304 303 304 302 305 300 299 300 302 303 305 301 305 305 314 306 308 312 310 306 300 296 297 296 295 295 293 293 292 292 291 290 289 289 288 288 287 287 287 286
297 298 300 299 297 295 295 295 300 298 296 299 301 303 305 305 308 304 310 309 304 302 300 298 296 293 296 295 293 292 291 290 290 289 289 289 289 288 287 286 286 285 284 283
293 290 292 292 294 292 291 292 294 294 295 296 300 305 304 301 299 299 298 300 297 295 292 292 294 296 294 294 292 291 290 290 290 289 288 287 286 285 284 283 283 282 282 281
293 291 288 288 289 289 289 290 291 291 298 300 297 296 296 297 296 293 291 291 290 289 290 288 290 293 292 291 291 290 289 288 287 286 285 285 285 284 284 284 282 281 280 280

GFSNW_925_thetae_051.txt.gz
Theta_e
306 305 305 305 305 304 303 304 306 303 304 308 308 309 312 311 314 313 313 316 320 316 321 321 318 319 319 318 319 320 320 321 324 324 322 321 323 324 325 327 328 325 326 326
303 305 305 305 305 304 303 304 305 304 306 307 309 308 309 308 311 312 312 316 319 320 321 322 320 318 318 318 319 322 320 320 323 323 323 323 324 324 324 325 325 326 332 326
302 302 303 305 305 305 303 304 306 306 307 308 308 309 310 308 310 312 312 315 316 318 323 321 322 320 319 318 318 320 321 321 321 324 322 321 322 321 321 323 329 325 323 322
301 301 302 303 304 305 303 303 306 306 308 309 310 309 308 307 308 312 312 313 315 317 318 320 321 321 321 319 317 319 322 321 320 319 319 320 320 320 320 321 322 324 323 321
301 301 301 303 305 304 303 301 307 307 309 309 309 309 308 308 308 310 313 314 316 318 318 319 321 321 320 319 319 320 321 322 322 320 319 319 318 318 318 318 319 320 320 320
302 302 302 303 304 304 303 300 304 309 307 310 309 311 309 307 308 310 310 313 315 317 317 321 321 319 319 320 321 320 322 324 322 323 320 320 324 319 318 318 318 319 320 320
302 302 302 301 303 303 298 300 305 308 310 311 310 308 308 308 308 310 310 310 313 314 316 317 317 316 315 319 319 320 323 322 323 327 324 329 321 319 319 319 319 319 320 320
303 302 302 301 304 302 300 302 305 309 312 308 309 308 308 308 309 311 310 310 312 313 316 316 317 317 315 317 319 318 321 325 327 329 327 320 319 320 320 320 320 319 319 320
303 303 302 301 300 302 301 303 303 309 310 309 308 308 308 309 311 311 310 312 314 315 317 316 316 314 311 311 315 318 319 323 328 327 327 328 322 320 320 320 324 320 320 320
301 300 302 301 302 303 302 303 303 307 308 307 308 309 309 308 310 312 312 315 315 315 318 320 316 315 312 313 320 325 324 326 330 330 329 323 320 319 320 325 325 321 320 319
302 302 302 301 302 303 302 302 303 306 308 308 306 308 310 309 310 312 312 314 316 317 319 318 315 319 316 315 315 324 325 325 330 329 331 331 321 321 322 323 324 322 321 320
300 302 301 301 302 302 302 303 302 304 307 307 306 308 309 309 309 311 312 315 315 315 315 317 316 324 325 317 322 315 324 324 326 325 325 324 321 323 321 322 322 324 322 321
300 301 301 301 301 301 302 303 303 303 305 307 308 309 307 307 309 311 315 314 314 315 315 315 318 321 318 326 323 318 319 319 325 323 322 322 323 321 321 322 322 322 322 320
301 301 301 300 301 300 302 303 303 303 305 307 307 304 305 307 308 310 312 313 314 314 314 317 321 322 314 322 318 318 317 318 320 320 319 320 321 322 323 321 320 320 318 319
301 301 301 299 300 301 301 302 302 303 304 307 305 304 304 305 306 309 310 313 316 315 317 322 319 314 313 317 320 319 316 319 322 323 317 323 323 322 321 322 321 319 318 318
302 301 300 300 300 300 300 301 301 302 303 303 306 306 306 304 305 307 310 314 315 315 316 318 315 313 316 326 321 314 313 316 318 319 319 321 321 316 315 320 321 320 317 317
301 300 299 299 300 300 302 302 301 300 301 303 305 307 307 306 305 306 309 313 314 316 318 319 318 317 317 324 323 313 314 317 318 318 317 318 316 317 313 316 318 314 315 315
299 299 299 300 299 299 303 301 300 301 302 303 304 308 308 305 307 307 311 314 315 315 315 316 318 319 321 321 316 316 315 316 318 318 315 315 312 311 311 311 311 313 313 313
299 299 299 299 300 302 303 300 300 303 304 305 306 309 312 307 306 309 311 314 316 314 318 317 317 318 320 317 317 316 315 317 316 314 311 311 311 311 309 308 309 309 309 308
297 298 300 301 301 300 299 301 302 304 305 305 306 307 311 311 312 313 312 310 316 316 318 317 319 319 309 304 307 311 311 311 311 313 314 313 311 310 308 308 307 307 306 305
300 301 302 300 299 300 302 302 304 303 306 305 307 309 311 309 313 313 313 310 312 319 317 319 320 313 301 300 301 305 307 308 309 309 310 310 310 310 307 305 304 302 301 299
301 301 300 299 301 304 306 306 306 307 309 308 309 310 310 310 309 309 310 314 310 318 308 313 308 302 299 299 298 298 300 301 302 303 304 304 305 305 303 300 297 294 291 289
302 302 303 304 304 305 306 307 308 309 305 302 306 312 310 309 306 305 309 315 314 304 310 308 303 300 297 298 297 296 295 294 294 293 292 292 292 291 291 290 289 289 288 286
301 305 304 305 304 300 299 300 303 300 300 301 301 306 307 303 304 303 313 306 309 313 311 304 298 296 297 297 296 294 292 291 291 291 290 289 289 289 288 288 288 288 287 286
298 299 299 299 298 295 295 296 299 297 296 298 301 303 303 305 306 304 309 310 304 301 300 296 294 294 296 294 293 293 292 292 292 291 290 289 288 288 287 286 286 285 284 283
293 290 293 292 296 293 292 292 294 294 296 296 300 304 303 302 302 300 301 301 298 295 294 292 293 294 293 292 292 291 291 290 289 288 287 286 286 286 285 284 283 283 283 282
292 291 288 289 289 289 290 290 291 292 297 301 300 299 298 299 297 294 293 293 292 291 289 289 289 290 291 290 290 289 288 288 287 287 287 286 285 284 284 284 282 281 281 280

GFSNW_925_thetae_054.txt.gz
Theta_e
304 305 305 306 305 305 305 304 305 304 305 307 308 309 311 310 309 309 311 313 312 314 317 321 321 320 321 320 320 320 321 323 324 322 321 321 321 323 325 330 328 330 333 329
304 305 305 306 306 305 305 305 305 304 305 307 308 309 307 308 310 309 310 312 313 315 318 323 323 325 320 321 320 322 320 322 324 321 323 323 322 323 324 326 327 330 336 329
301 301 302 307 306 305 305 303 305 306 306 307 308 309 310 309 308 309 309 312 314 315 319 321 323 323 321 322 319 320 320 323 323 325 326 324 324 322 325 326 330 329 330 327
301 300 301 302 306 305 305 303 305 307 307 307 309 310 308 309 309 308 309 310 313 314 318 321 321 324 323 320 319 319 322 323 324 321 320 322 323 322 322 324 324 330 329 324
301 300 300 303 303 305 306 299 306 307 307 307 308 309 311 308 309 308 308 310 311 314 316 319 320 324 322 323 320 320 321 324 323 324 320 320 321 321 321 320 320 320 322 323
299 299 300 301 302 304 305 300 303 307 307 309 309 309 311 310 309 309 308 309 312 314 315 318 321 317 321 323 322 322 323 324 324 325 322 320 320 321 320 320 321 320 321 322
300 300 301 301 301 302 302 298 305 306 308 310 309 308 309 309 309 311 309 310 311 313 316 320 319 317 315 317 321 321 322 323 323 327 324 325 320 320 320 320 320 319 319 319
302 301 301 302 301 302 301 300 305 307 310 309 309 309 309 309 309 310 311 310 310 313 318 318 319 316 314 317 320 320 320 323 328 327 326 323 320 321 320 321 320 320 319 319
302 302 302 302 302 302 302 302 304 307 309 311 308 309 309 310 310 311 311 310 312 313 312 318 318 320 316 315 317 319 320 320 325 331 327 327 323 321 320 321 322 321 320 321
302 303 303 303 302 302 302 302 303 307 308 309 308 309 311 310 309 311 312 311 313 316 315 317 319 317 313 315 317 318 320 319 326 328 329 326 320 320 319 323 323 323 322 322
303 303 303 303 303 302 302 302 303 306 307 309 308 308 309 310 310 312 312 313 316 315 318 318 318 319 315 313 312 320 320 321 326 327 329 329 322 321 322 322 323 325 324 323
302 302 301 302 303 302 301 304 304 305 308 307 307 308 309 309 310 312 312 314 314 315 317 317 318 324 322 317 319 317 321 319 323 324 325 325 322 322 323 323 325 325 324 324
301 301 301 303 302 302 302 304 305 305 304 307 308 308 308 306 309 310 313 314 314 314 315 316 317 320 317 323 320 318 319 318 322 323 319 318 323 323 322 322 323 323 323 324
302 301 301 302 301 300 302 303 304 304 305 307 307 307 307 307 308 310 312 313 313 316 317 319 319 322 317 321 317 317 317 317 321 321 320 319 318 319 322 322 323 323 321 320
302 302 301 302 302 302 303 303 303 303 306 306 308 306 305 307 308 309 310 313 314 315 315 320 319 317 319 322 319 319 315 315 318 323 320 322 322 321 322 319 320 322 320 320
301 302 302 302 302 303 303 301 303 303 303 306 308 307 306 305 307 309 310 311 313 315 315 317 316 315 317 323 318 315 314 313 313 317 317 319 320 318 317 317 318 321 321 320
301 301 300 301 301 302 304 304 302 303 304 306 307 307 306 306 307 307 309 310 313 315 316 318 317 316 315 321 320 314 314 315 318 319 319 320 319 318 314 313 315 317 318 318
301 301 301 301 300 301 303 302 302 302 303 304 306 307 308 307 309 309 308 312 312 314 314 317 318 317 320 319 316 316 315 317 316 317 318 317 315 313 313 312 313 313 316 315
300 300 300 300 301 303 302 300 300 302 304 305 307 307 311 307 308 308 312 312 312 312 318 317 318 319 316 307 306 308 311 312 313 314 313 313 313 312 312 310 310 311 310 310
300 301 301 303 302 299 300 301 303 304 306 306 306 307 309 306 306 310 313 312 312 314 315 315 319 311 303 300 300 302 302 306 310 312 313 313 313 314 311 309 309 309 309 306
302 302 302 301 300 301 302 303 304 304 304 305 306 307 309 304 307 307 310 311 311 315 316 317 318 304 300 298 298 298 298 302 303 306 307 307 308 310 309 305 303 298 295 293
301 301 300 300 301 302 305 305 305 305 307 307 309 310 310 308 308 303 305 309 307 316 308 312 307 300 298 297 296 295 295 296 296 296 298 297 297 297 295 293 292 290 289 288
302 303 303 303 304 306 307 306 306 305 303 301 302 307 307 309 306 303 306 311 311 306 309 304 300 296 297 297 295 293 292 291 291 291 290 290 290 289 289 288 287 286 285 284
303 305 303 303 301 300 299 299 300 299 299 299 300 304 304 302 305 303 310 305 307 311 306 299 295 296 295 294 294 293 292 291 290 290 289 289 288 288 288 287 286 285 285 284
297 297 298 297 297 295 295 293 297 296 296 298 302 302 305 304 306 303 307 307 301 299 297 294 293 294 293 292 292 291 290 289 289 288 288 287 286 286 285 284 283 283 282 282
292 290 293 292 294 292 292 292 294 294 294 296 299 305 304 301 300 299 299 299 296 294 292 291 291 291 291 290 290 290 289 289 288 287 286 285 284 283 283 282 282 282 282 282
292 291 289 290 290 290 291 292 291 292 294 301 299 298 298 299 296 294 293 293 291 289 288 288 288 288 288 288 288 288 287 287 286 285 285 284 284 283 283 283 282 281 281 281

GFSNW_925_thetae_057.txt.gz
Theta_e
302 303 304 304 305 305 305 305 306 304 304 306 306 306 307 307 308 309 310 309 309 310 311 312 314 319 321 317 317 318 317 319 319 320 320 320 320 320 320 327 328 326 324 325
302 302 303 304 304 305 306 306 305 304 304 306 305 306 307 307 307 308 308 309 309 309 311 312 322 322 320 321 320 318 317 318 322 322 319 320 320 319 321 322 326 327 327 327
301 303 304 304 304 306 306 303 304 305 305 304 304 306 307 308 307 307 307 309 309 308 310 312 320 321 321 321 321 320 318 318 319 321 321 321 322 321 320 322 322 324 326 326
302 303 302 301 303 306 306 300 303 305 307 305 305 304 306 308 309 307 306 307 308 309 309 312 315 320 322 321 321 320 320 319 318 319 320 322 322 323 321 321 323 326 325 324
304 301 301 301 301 303 307 299 304 305 304 306 306 306 307 307 307 308 308 307 307 308 309 309 314 322 322 322 322 321 320 320 318 319 319 321 322 323 321 320 324 324 324 324
301 301 301 301 301 301 306 300 300 305 306 306 307 306 306 308 306 307 307 308 307 307 308 310 319 318 319 319 321 320 322 320 322 321 319 320 321 320 320 321 319 320 320 318
299 299 299 300 301 301 302 300 303 305 308 306 306 306 306 307 308 309 308 308 308 307 314 317 315 314 316 317 318 320 319 322 320 319 318 324 320 318 318 319 320 318 317 316
299 299 299 300 300 301 302 300 303 305 306 307 306 306 306 306 307 308 309 308 307 306 306 311 316 314 316 317 317 319 318 321 320 322 323 321 321 319 319 319 318 317 317 316
301 301 300 300 300 300 301 302 299 304 305 307 306 306 306 307 308 307 307 307 307 308 307 310 313 315 318 317 316 317 313 320 319 319 323 323 320 319 319 319 319 319 319 317
301 301 302 301 301 301 301 301 300 302 302 306 306 307 307 307 308 308 307 308 309 308 307 310 313 317 316 316 315 314 314 314 319 320 323 321 319 319 319 320 318 319 319 319
300 302 302 302 301 301 301 302 301 302 303 306 306 308 307 307 308 309 307 309 310 311 308 309 309 308 313 315 315 317 317 317 317 319 322 324 320 320 319 317 317 319 319 318
301 301 301 302 303 302 301 302 301 301 304 306 306 308 307 309 309 310 308 309 310 310 311 310 310 309 309 311 313 315 319 317 319 319 318 320 318 322 319 318 319 321 321 320
302 301 301 302 302 302 302 302 302 302 304 305 306 304 306 306 307 309 311 308 310 312 310 312 312 310 311 310 311 312 316 316 317 319 318 315 315 317 318 319 319 319 319 320
301 300 302 303 302 301 302 302 302 302 303 304 307 307 308 306 305 308 308 310 311 311 311 311 312 313 311 310 313 313 314 315 316 318 317 317 317 315 316 317 318 317 318 317
302 301 301 302 302 302 302 302 302 303 304 303 305 306 307 305 304 307 308 310 310 312 308 305 311 311 312 313 313 313 312 312 314 318 317 317 319 319 318 318 316 315 316 317
301 300 302 302 303 303 303 303 304 304 304 305 305 305 306 307 307 308 309 309 310 310 311 309 313 314 313 307 312 313 311 311 310 311 315 315 317 315 314 316 314 315 315 316
301 299 300 301 301 302 303 302 302 303 303 306 304 305 305 305 307 305 307 308 309 309 312 311 311 312 313 305 311 310 311 312 314 313 315 317 313 314 312 311 312 311 312 312
300 301 302 301 302 302 302 303 303 303 304 303 301 301 305 306 305 306 306 307 308 310 310 309 313 313 313 308 305 305 306 308 310 310 311 312 311 311 310 308 308 309 309 309
301 301 301 301 301 300 300 302 302 302 304 303 300 303 307 304 306 305 306 307 304 309 307 310 311 310 305 302 301 301 302 304 306 309 310 310 310 311 308 307 307 306 303 300
301 301 302 300 300 301 301 301 303 303 304 304 300 302 304 305 303 306 304 299 302 309 308 311 308 302 300 298 298 298 298 300 303 307 307 306 307 308 302 301 298 297 294 291
302 301 300 300 300 301 301 299 302 303 302 301 302 304 306 303 305 306 302 304 303 306 307 310 307 300 297 296 296 294 295 296 297 299 299 299 299 299 297 294 292 290 288 287
301 300 300 301 301 301 303 303 302 301 304 303 303 303 306 304 304 304 304 307 306 310 307 305 300 296 295 295 294 293 292 292 292 292 292 292 292 292 291 289 287 286 285 284
302 302 300 303 300 301 298 304 305 303 300 299 300 304 300 303 301 301 304 307 308 304 304 298 294 295 294 293 292 291 290 290 289 289 289 288 287 286 286 286 284 284 283 282
298 300 296 297 294 296 295 296 297 297 297 296 298 302 303 300 303 302 308 303 303 303 299 294 293 292 292 291 290 289 288 287 287 286 286 285 284 284 283 283 283 282 282 281
292 292 295 292 294 291 291 292 294 294 294 295 299 300 303 301 302 300 303 301 296 295 292 291 291 290 290 290 289 288 287 286 285 284 284 284 283 283 283 282 282 281 281 281
289 288 289 289 290 289 289 290 292 292 292 293 297 303 298 298 295 294 295 294 292 290 289 288 288 287 288 288 287 286 286 285 285 284 283 283 282 282 282 281 281 281 281 280
291 289 288 288 289 289 289 290 290 290 293 297 296 294 294 296 292 291 291 289 288 286 286 285 284 285 285 284 284 284 285 285 284 284 283 283 282 282 282 282 281 281 280 279

GFSNW_925_thetae_060.txt.gz
Theta_e
299 300 301 303 303 304 305 306 306 304 304 304 304 305 306 306 306 307 308 309 309 309 310 311 312 314 315 318 321 319 317 316 317 317 317 318 318 320 320 323 325 324 321 323
299 300 301 302 302 304 306 306 304 304 303 304 305 303 304 305 306 307 307 309 309 307 307 310 312 315 317 321 321 323 321 317 319 319 317 317 318 319 319 321 322 323 325 326
299 300 301 301 302 303 305 301 304 305 304 303 304 304 304 306 305 305 305 307 307 308 309 308 309 312 316 320 321 320 320 323 320 320 319 318 320 319 319 319 321 322 324 325
299 300 301 301 302 302 305 299 302 304 307 305 305 304 305 305 306 306 306 307 306 307 309 309 308 312 320 320 320 320 322 325 320 319 317 318 320 321 320 319 320 321 321 323
299 299 300 300 301 303 305 298 303 304 303 306 305 305 305 305 306 307 307 307 306 306 308 308 308 309 310 320 320 319 319 322 322 320 318 318 319 319 321 321 319 320 321 323
299 300 300 301 302 302 305 304 300 305 306 307 306 305 304 305 304 305 306 307 307 306 306 305 306 314 317 320 319 318 316 320 320 322 317 318 320 319 319 320 320 320 322 320
300 301 301 301 303 303 302 301 303 305 307 305 306 305 305 304 305 306 305 305 306 306 306 313 314 313 315 316 318 317 316 316 318 320 315 324 319 318 318 318 319 318 317 316
298 298 300 302 301 301 301 301 302 304 306 305 304 305 305 305 304 305 306 307 305 305 305 309 309 309 311 314 317 320 319 318 317 321 322 320 320 319 318 319 319 317 317 315
299 299 299 298 299 301 302 301 300 301 305 307 305 304 304 305 305 304 305 305 305 306 305 306 307 306 312 315 318 317 314 314 316 317 320 324 318 317 317 318 319 316 316 317
300 300 300 300 299 299 300 301 300 300 300 304 305 305 305 304 304 304 305 305 305 305 305 305 308 309 310 312 313 314 312 310 316 318 321 319 318 319 317 321 319 317 318 318
301 301 301 301 300 300 300 300 300 300 300 301 304 306 305 304 305 305 304 307 307 309 308 308 306 305 312 314 313 314 313 313 315 317 321 320 319 321 321 317 318 320 320 317
301 301 301 301 301 301 300 300 300 300 301 302 303 303 307 305 306 305 304 307 307 308 309 306 306 304 303 310 312 312 315 314 315 315 316 316 317 319 320 317 318 319 318 318
301 300 300 300 301 301 301 301 301 301 301 300 302 305 307 306 306 308 308 306 308 311 307 308 308 308 307 308 308 309 311 314 317 318 316 317 315 316 318 317 317 318 316 317
301 301 300 300 301 302 302 301 301 301 301 301 304 301 304 305 305 305 307 308 310 310 309 308 305 306 309 306 309 309 309 314 315 316 315 315 315 316 315 314 317 317 315 315
301 300 301 301 301 302 302 301 301 301 301 301 304 305 305 304 306 306 307 307 308 311 310 308 307 307 308 308 310 311 310 313 315 315 314 313 314 313 316 314 314 315 315 315
301 302 301 301 301 302 302 303 301 301 303 304 304 303 306 305 305 306 307 307 308 308 310 307 307 310 308 306 309 309 308 307 310 312 311 312 313 311 311 314 313 314 314 314
300 300 301 301 302 300 301 300 301 302 302 304 304 303 305 306 306 306 307 308 309 310 311 309 310 310 312 303 309 306 305 305 308 307 311 314 310 311 309 309 309 309 309 308
300 300 302 301 300 301 302 303 302 302 303 303 302 302 303 305 304 307 305 308 308 309 309 310 311 311 311 309 301 301 302 302 306 305 307 308 308 308 307 306 306 304 299 297
301 301 300 300 301 301 302 302 303 303 303 299 295 299 305 303 305 304 305 304 303 305 302 307 309 306 300 298 298 299 298 300 303 305 304 305 305 302 300 301 300 297 294 292
301 300 299 298 300 302 303 302 300 300 301 301 298 299 303 304 302 303 303 297 301 309 307 307 302 298 297 295 296 294 295 297 298 303 303 302 303 298 296 294 292 291 289 288
300 298 300 300 301 300 299 299 300 302 301 299 300 302 303 302 305 306 299 304 304 306 307 305 299 296 295 294 292 292 292 293 294 295 295 296 296 296 293 290 288 287 286 285
300 300 300 300 301 301 300 302 300 300 305 301 303 304 304 302 302 304 304 304 304 306 303 296 294 295 293 292 291 290 290 290 290 290 289 289 288 288 287 286 285 284 283 282
302 300 300 298 294 293 294 301 302 300 298 297 299 303 300 301 301 301 303 306 307 302 297 294 293 292 291 290 288 287 287 286 286 285 285 284 284 284 284 284 283 282 281 281
294 295 291 290 289 292 291 291 291 293 294 294 296 300 302 299 302 302 305 299 298 294 293 290 291 290 289 288 287 286 285 285 284 284 283 283 282 282 282 282 281 281 281 280
289 289 289 289 289 286 288 288 290 291 290 294 297 300 300 298 298 296 299 296 291 291 288 289 288 288 287 287 287 286 285 284 283 283 283 282 282 282 282 281 281 281 280 280
288 288 287 287 285 286 285 284 289 290 291 293 296 298 296 295 292 293 293 291 289 288 286 286 285 285 285 285 285 285 284 284 283 283 282 282 282 281 281 280 279 279 279 279
289 287 287 286 287 287 287 288 287 289 292 293 293 290 291 292 291 290 288 286 286 285 284 283 282 283 283 282 282 281 281 280 281 282 282 282 282 281 280 280 279 278 278 277

GFSNW_925_thetae_063.txt.gz
Theta_e
297 297 298 299 299 302 303 306 306 304 304 304 303 302 303 305 305 306 307 308 309 309 308 308 310 312 312 319 320 322 318 316 317 317 315 316 316 318 320 323 324 322 320 322
298 298 298 299 299 301 305 305 303 303 303 305 304 303 303 304 306 306 306 308 308 307 307 306 308 311 314 319 321 322 321 321 319 318 316 315 315 316 317 319 319 323 324 322
297 297 298 299 299 300 303 299 303 304 304 302 303 304 303 304 304 304 305 306 305 307 308 307 307 309 310 314 321 319 320 322 323 323 319 316 318 316 316 318 320 320 321 320
297 297 299 299 299 300 303 297 302 304 306 305 304 304 304 304 304 304 304 305 305 305 307 308 307 307 311 314 318 319 319 322 321 319 320 320 319 319 317 318 318 320 319 320
297 298 298 299 299 300 303 297 303 304 303 306 304 305 305 304 304 305 306 306 306 305 305 306 307 307 307 310 316 319 318 318 319 318 319 318 320 317 317 317 317 317 318 318
298 298 299 299 300 301 302 301 300 305 306 306 306 305 304 305 305 305 304 306 306 306 305 304 305 304 306 310 318 316 317 317 317 318 318 317 319 319 318 316 318 318 319 318
298 298 299 299 299 301 301 302 302 304 306 305 306 306 304 304 304 304 305 304 306 305 304 307 309 310 311 313 316 315 315 315 315 315 316 320 319 314 316 317 317 317 317 317
298 299 299 299 299 300 301 302 303 304 306 306 305 306 305 304 303 304 303 303 304 303 304 307 307 306 310 311 315 316 314 314 316 315 317 316 313 316 317 318 318 316 317 316
299 299 301 301 300 300 302 302 302 302 305 306 305 305 305 305 304 303 304 304 304 305 305 305 310 306 307 313 317 317 317 315 314 317 318 316 311 313 312 317 319 315 316 317
298 298 298 298 299 300 301 301 300 300 300 303 305 306 305 304 303 303 303 304 304 303 302 306 309 308 307 307 314 315 314 313 317 316 316 315 314 316 318 324 320 319 319 318
298 298 299 299 299 298 300 301 299 300 300 301 304 305 305 304 304 304 302 305 304 303 304 305 305 302 307 309 309 312 312 312 310 312 315 317 316 315 317 316 316 319 318 318
300 299 299 300 299 299 299 300 300 300 300 300 302 301 301 303 304 304 304 305 306 305 304 303 304 303 299 308 310 310 312 310 311 312 314 313 313 313 313 314 318 316 317 317
301 301 300 300 301 300 299 299 300 300 300 301 301 301 302 303 305 305 304 303 305 307 304 303 304 304 303 304 305 308 307 310 312 313 312 312 312 314 315 318 318 316 315 315
301 301 301 301 301 301 301 300 299 299 301 302 300 300 300 302 305 306 306 306 308 306 306 305 305 309 306 304 306 306 306 308 309 309 312 312 314 313 313 314 315 316 316 315
301 300 300 300 300 301 302 299 300 299 300 299 298 302 301 302 304 305 306 307 308 307 307 306 309 305 309 309 308 307 309 310 311 310 312 311 313 312 312 315 314 314 314 313
300 301 301 300 300 301 302 301 300 299 300 302 300 301 303 302 304 305 305 305 306 308 309 305 308 309 309 306 309 308 307 306 305 310 307 307 310 309 308 311 310 310 309 306
301 300 301 301 300 301 300 300 300 300 301 302 302 300 305 305 304 304 304 306 307 306 307 306 306 308 311 304 306 303 302 301 303 305 306 311 310 309 306 306 304 301 298 295
301 301 301 301 301 300 302 301 300 301 301 302 303 304 304 306 305 306 304 306 306 308 306 307 308 309 308 301 299 299 298 300 303 301 305 305 304 301 299 299 298 296 293 291
301 301 300 300 300 300 301 301 301 301 301 301 297 300 306 303 303 303 304 304 304 305 305 306 308 302 297 296 297 295 295 297 299 299 303 303 300 298 296 294 294 291 289 288
300 300 298 298 301 301 302 301 300 298 302 299 297 297 307 305 301 300 302 300 305 307 305 303 299 296 294 293 292 292 293 295 296 299 300 299 301 296 292 291 289 288 287 286
299 300 299 300 299 300 299 299 301 300 298 297 298 300 302 301 305 304 301 304 302 306 307 302 298 295 293 290 289 289 290 291 291 292 291 291 291 291 289 287 286 285 284 284
300 300 300 300 297 295 298 295 296 300 303 300 304 304 302 300 302 303 303 306 303 304 298 296 294 292 290 289 287 287 287 287 287 286 286 286 286 285 284 284 283 282 281 281
299 296 293 293 289 289 291 299 300 298 296 294 298 303 300 301 301 302 303 305 306 297 294 292 291 290 288 287 286 285 285 284 284 284 283 283 283 282 282 282 281 280 280 279
291 291 288 288 286 289 290 290 291 291 292 293 296 300 301 298 301 299 300 296 295 292 290 289 288 288 287 286 285 284 283 283 283 282 282 282 281 281 281 280 280 279 278 278
289 288 286 287 288 287 287 287 290 290 291 293 298 298 297 295 295 293 295 291 288 288 285 285 286 286 285 285 284 284 283 282 282 282 281 281 280 280 280 279 279 279 279 278
288 286 285 285 283 283 282 283 286 288 289 291 292 294 295 293 292 291 291 288 287 285 283 285 283 282 282 281 282 282 282 282 282 282 281 281 280 279 279 278 278 278 277 277
288 286 285 283 279 280 282 284 286 287 288 291 290 288 289 291 291 286 285 285 284 283 282 281 281 281 281 281 281 280 280 280 280 280 280 280 280 279 278 278 277 277 276 276

GFSNW_925_thetae_066.txt.gz
Theta_e
296 297 297 297 296 298 299 303 305 304 304 304 303 304 301 303 303 305 306 307 308 308 307 307 307 311 318 314 319 317 319 316 315 315 315 314 315 316 318 320 319 319 318 321
296 296 296 296 297 299 300 303 304 303 304 306 305 303 303 301 305 305 305 307 306 306 306 305 306 309 312 316 319 321 319 321 321 318 316 315 315 315 315 318 318 320 323 321
296 296 296 297 295 297 300 299 302 304 304 304 305 304 304 303 302 303 304 305 305 306 307 307 307 308 308 310 316 318 319 322 324 326 324 320 321 319 317 316 318 317 319 318
295 296 297 297 297 297 300 299 300 303 304 305 304 303 304 304 305 303 303 304 304 305 305 306 306 306 308 307 310 318 317 318 321 322 319 319 319 317 317 320 315 318 318 317
296 296 296 297 297 297 301 297 301 304 304 305 305 304 305 304 303 304 304 305 305 304 305 305 305 305 305 306 307 317 317 316 318 317 317 317 317 315 317 318 316 316 315 316
296 296 297 297 297 297 301 300 299 304 306 306 306 305 305 304 304 304 303 305 305 305 304 303 303 303 304 305 307 309 315 316 315 315 315 315 314 317 313 313 315 316 317 316
297 297 297 297 297 298 299 298 301 302 305 305 305 305 304 304 304 304 304 303 304 305 303 304 304 304 303 304 305 307 312 314 312 312 312 317 310 316 313 316 313 311 312 314
297 297 297 297 298 298 300 300 302 302 303 306 304 306 305 304 304 305 304 304 303 303 305 307 307 304 308 310 311 311 312 312 311 311 314 312 311 309 313 314 312 311 315 315
298 298 298 298 298 299 300 300 301 303 304 304 306 305 306 305 304 303 304 303 303 304 304 306 310 309 306 310 313 313 312 312 314 313 314 311 308 314 317 318 315 317 318 319
299 299 299 299 299 299 300 301 301 301 301 304 305 306 307 305 304 304 303 303 304 303 302 306 309 309 306 308 312 314 314 313 316 316 317 313 310 314 317 323 312 313 316 316
297 298 298 298 300 300 300 300 300 300 300 303 305 305 305 305 304 304 302 305 304 304 306 306 307 304 305 306 309 312 312 312 313 313 316 314 313 313 316 315 311 311 313 315
297 297 298 298 298 299 301 298 300 301 300 301 301 302 304 302 304 304 303 304 304 302 302 301 302 302 298 306 308 307 310 309 309 310 310 309 311 310 312 311 311 312 315 314
300 299 299 298 298 298 298 297 299 300 297 299 301 301 301 303 302 303 305 303 305 303 301 301 302 303 301 303 305 307 306 308 310 310 309 309 308 308 310 311 312 313 315 313
301 301 300 299 299 299 298 298 299 299 300 302 300 300 303 302 302 303 305 304 306 306 305 303 302 303 303 302 304 304 304 305 308 308 307 309 308 310 310 310 312 315 316 314
301 300 301 300 299 300 299 299 299 299 299 300 299 301 301 303 302 303 305 306 306 307 307 304 304 303 305 305 307 308 308 308 308 308 309 308 309 308 308 309 310 309 311 313
300 301 300 301 300 301 300 299 299 298 299 300 298 299 300 300 301 304 305 306 306 306 307 305 306 306 305 300 305 306 306 304 304 308 306 305 305 306 303 305 303 300 298 296
301 300 300 300 300 300 298 300 300 299 299 301 299 298 304 301 304 304 304 305 306 306 307 306 307 307 308 305 304 301 300 299 300 303 302 306 305 304 298 298 298 295 292 291
300 300 300 300 301 301 300 301 299 299 300 301 302 303 305 303 304 306 304 305 305 307 306 306 306 306 305 304 297 297 296 296 299 299 299 303 301 298 296 294 293 291 289 288
301 300 300 300 300 300 301 300 299 300 300 300 300 302 307 304 304 304 304 304 305 304 305 306 307 300 297 295 293 293 293 294 295 295 297 300 298 295 293 291 290 290 288 287
299 300 298 299 301 300 301 298 298 299 300 300 301 298 306 304 302 302 303 301 304 304 306 300 298 295 293 291 290 290 290 292 292 295 297 294 295 292 289 288 287 287 286 285
300 300 297 300 300 298 297 298 300 300 300 298 299 300 305 302 303 302 300 304 303 307 306 303 297 294 292 288 287 287 287 288 288 290 288 288 289 288 287 285 284 284 283 282
299 298 296 297 294 296 300 299 299 300 302 299 303 303 299 301 302 304 302 305 303 302 296 295 292 291 288 287 286 285 285 285 285 285 285 285 284 284 283 282 282 281 280 279
295 293 291 291 286 287 290 300 298 296 294 294 298 302 300 300 301 302 303 305 300 295 292 291 289 288 286 286 284 284 283 283 283 283 282 282 281 281 280 280 279 279 278 278
290 289 285 283 282 286 287 289 289 290 291 292 295 300 299 297 299 296 298 293 292 290 289 287 286 286 285 284 284 283 283 282 281 281 280 280 280 280 279 278 278 278 277 277
288 287 285 285 286 285 284 285 288 289 290 293 298 295 294 293 293 291 292 289 289 287 284 283 285 284 284 284 283 283 282 282 281 281 280 280 279 279 278 278 277 277 277 276
286 285 284 283 283 283 283 284 284 286 288 291 292 294 293 292 291 289 288 288 285 283 283 283 282 282 282 281 281 280 281 281 281 280 280 279 278 278 277 276 276 275 275 275
287 283 281 277 278 279 281 282 284 285 289 289 290 289 288 291 288 285 284 284 283 282 281 280 280 280 280 280 280 279 279 278 279 279 279 279 278 277 277 276 275 275 274 274

GFSNW_925_thetae_069.txt.gz
Theta_e
297 297 296 297 297 295 297 299 302 303 304 304 303 304 302 302 302 304 305 307 308 308 307 307 308 312 313 309 318 319 319 316 317 314 314 315 316 318 319 322 321 322 322 322
296 296 296 297 296 295 298 301 301 302 304 305 305 305 303 301 303 304 305 307 306 306 307 307 306 309 310 309 311 318 318 321 323 319 317 319 319 317 318 318 319 320 325 322
296 295 296 297 295 295 297 299 301 302 304 304 304 305 304 303 301 302 304 305 305 306 307 307 308 308 308 308 308 314 319 320 322 325 323 321 321 319 318 318 321 319 319 318
295 295 296 296 295 295 295 298 300 302 302 303 304 304 305 303 303 302 303 304 305 305 306 306 307 307 306 306 308 317 318 318 319 318 318 320 318 318 316 315 318 322 320 318
295 296 296 295 295 296 296 298 300 302 303 304 305 305 306 304 303 304 304 304 305 305 305 305 305 305 305 306 308 311 310 317 319 319 318 318 318 317 316 315 317 317 316 318
294 295 295 296 295 295 297 297 298 301 301 303 306 305 305 305 304 304 304 304 304 306 305 305 305 305 305 305 306 306 309 317 317 317 316 316 315 315 315 317 315 317 317 315
296 296 296 296 296 296 297 298 299 300 300 303 305 306 304 304 304 304 304 304 305 305 304 305 304 304 304 305 305 306 308 312 314 316 314 316 310 311 313 315 315 315 313 314
296 297 297 297 297 296 297 298 299 301 301 301 304 305 305 304 304 304 304 304 303 303 304 308 308 307 308 309 307 307 307 310 315 317 316 313 311 310 311 314 314 316 319 319
298 298 298 299 297 297 298 298 298 301 301 302 303 306 305 305 305 305 304 304 304 305 307 309 308 308 307 309 312 311 309 311 314 316 316 315 310 312 317 315 315 316 316 316
298 297 298 299 297 297 298 298 298 300 300 302 303 304 306 305 304 305 304 304 304 304 308 307 308 307 307 309 311 310 312 312 312 315 315 315 312 312 318 317 316 315 314 314
298 297 297 299 298 298 298 298 299 300 299 302 303 304 305 305 304 305 304 305 304 306 307 308 307 308 308 307 309 312 311 313 314 313 315 314 311 314 316 312 314 313 314 314
298 297 297 298 299 299 299 299 300 300 300 301 302 303 304 304 303 304 304 305 304 305 306 305 306 307 305 308 309 308 311 312 314 314 314 311 312 314 311 311 313 313 313 314
299 298 297 298 298 299 299 299 300 300 296 300 301 302 302 304 303 303 304 304 305 304 304 304 305 305 305 309 308 309 308 307 311 310 309 309 309 309 311 310 311 312 313 313
299 299 299 298 298 298 297 297 300 298 299 302 302 300 302 303 302 303 303 304 305 306 306 306 304 306 303 306 306 307 307 307 309 309 308 309 309 309 308 308 309 307 305 307
299 300 300 299 298 298 297 297 298 299 301 301 301 300 301 302 302 302 304 305 306 307 306 305 308 304 308 306 308 308 308 308 310 310 308 307 307 308 305 304 304 301 299 299
301 301 300 299 299 299 297 296 298 299 299 301 301 300 301 301 302 303 303 304 305 306 307 306 306 306 307 308 308 306 305 303 303 307 304 305 306 306 299 300 300 297 295 293
301 300 300 301 298 297 298 299 299 299 299 300 300 301 302 302 302 302 303 302 303 305 305 305 306 308 309 306 308 300 299 297 298 300 301 306 305 304 298 296 295 293 291 289
300 300 300 300 299 298 299 301 299 298 299 300 303 303 304 301 303 304 304 305 305 305 304 305 307 307 306 308 297 295 294 294 297 295 296 298 300 297 294 293 293 291 289 288
300 300 300 299 298 297 299 299 299 299 300 300 301 304 307 302 303 304 304 305 305 305 305 307 307 303 304 293 291 290 290 290 292 293 295 296 296 292 290 290 289 289 287 286
301 299 298 300 301 299 300 300 299 300 300 301 300 299 305 304 303 303 303 302 305 307 304 300 299 295 290 289 288 287 287 288 289 291 292 291 292 290 288 287 286 286 284 283
300 298 298 300 299 299 298 300 300 300 301 300 300 302 304 301 304 304 301 305 303 305 304 303 296 294 290 288 287 286 286 286 286 287 287 286 287 287 285 284 283 282 281 280
298 297 294 293 293 296 301 300 300 301 301 298 303 303 301 302 299 304 302 306 304 305 296 294 292 289 287 286 285 284 284 285 284 284 284 283 283 282 282 281 280 279 278 277
293 292 289 292 287 287 289 300 296 297 293 293 298 302 300 300 301 303 304 303 298 294 293 290 288 286 285 284 284 283 283 282 282 282 281 280 280 279 279 279 278 277 277 276
290 289 285 284 283 287 288 288 289 290 292 292 295 298 297 295 297 295 296 292 292 291 289 287 286 285 284 284 283 282 282 281 281 280 280 279 279 278 278 278 277 276 275 274
287 286 284 285 285 285 285 285 288 288 289 292 298 293 293 292 292 291 292 291 288 287 286 285 284 284 284 283 283 282 281 281 280 279 279 278 278 277 277 276 276 275 275 275
285 283 282 282 283 283 283 284 285 286 287 291 292 294 292 291 289 288 287 288 286 284 284 283 283 282 281 281 280 280 280 280 280 279 278 278 277 277 276 275 274 274 274 273
284 282 280 279 281 281 282 282 283 284 288 289 289 289 288 289 287 284 284 283 283 282 280 280 280 279 279 279 279 279 278 278 278 278 278 277 277 276 275 275 274 274 273 272

GFSNW_925_thetae_072.txt.gz
Theta_e
296 297 297 297 297 295 296 298 301 302 304 305 305 305 305 304 303 304 306 307 308 309 308 308 307 310 312 309 312 318 319 318 318 318 316 316 318 319 320 323 323 322 324 324
296 296 296 297 297 296 297 299 300 301 303 305 305 305 306 304 304 304 305 306 308 308 308 308 307 309 310 309 308 312 316 320 316 314 315 318 317 319 319 320 321 324 329 324
296 296 295 296 296 295 297 299 301 302 303 302 305 305 305 306 303 304 305 306 307 308 308 308 307 308 307 308 307 313 314 317 322 320 320 320 322 320 320 321 323 321 321 321
295 296 296 296 296 295 296 299 299 301 303 302 305 304 304 305 305 304 304 305 306 307 308 308 308 308 307 307 309 312 319 316 315 316 314 315 316 317 316 318 318 321 321 321
295 295 296 295 295 295 296 298 299 300 301 302 306 307 305 306 305 305 305 306 306 307 308 308 308 307 307 308 308 309 312 314 317 314 313 314 315 315 315 315 315 319 320 319
294 295 296 295 294 295 296 296 297 299 300 301 302 303 305 307 306 305 305 305 305 307 307 307 307 307 307 307 308 309 310 315 315 315 315 315 316 315 314 315 315 318 319 316
296 295 295 295 294 295 296 297 298 299 298 300 303 301 303 305 306 306 305 305 306 306 306 307 307 308 308 309 308 308 309 314 315 316 316 315 312 312 313 315 314 315 314 316
297 296 295 295 295 295 296 296 298 299 300 300 300 300 305 306 305 306 306 305 304 305 305 308 309 310 309 309 309 309 309 310 314 314 313 311 310 311 311 311 311 315 315 317
297 296 296 296 296 296 296 296 297 299 301 302 300 301 302 305 306 306 306 305 305 305 308 308 308 310 309 310 312 309 310 310 313 314 313 314 312 314 315 315 313 314 315 314
297 297 297 297 297 297 297 297 297 297 299 299 302 303 303 304 306 306 306 306 306 305 309 309 309 309 307 309 311 313 311 311 314 314 315 314 312 311 317 316 317 313 313 314
298 298 298 298 298 298 298 297 297 297 299 299 300 303 303 304 306 306 306 306 305 305 309 309 308 309 308 307 309 311 312 311 313 314 313 315 313 314 316 316 313 313 314 314
298 297 297 298 298 298 299 298 298 297 301 300 300 300 302 303 304 306 305 306 306 306 308 308 308 309 308 307 309 309 314 312 314 312 313 313 314 314 312 314 314 314 315 315
299 298 298 298 298 298 299 298 298 298 299 299 301 302 302 304 304 304 306 305 306 307 306 308 308 309 307 310 308 308 308 309 312 311 310 311 310 311 312 312 313 312 311 311
300 300 298 298 298 298 298 298 299 298 299 303 303 299 301 302 304 304 304 304 304 305 306 307 309 308 307 308 308 308 308 308 309 309 309 310 309 311 311 311 311 309 307 306
300 300 300 298 297 298 299 299 299 299 301 303 303 302 301 303 304 304 304 304 306 307 307 308 310 307 308 309 310 309 308 307 310 309 311 311 310 310 309 309 309 306 304 303
300 300 298 298 298 297 297 295 299 299 300 303 304 302 302 303 303 303 304 305 305 306 307 307 307 308 309 310 310 308 310 307 306 309 305 305 306 307 304 304 305 302 300 297
300 300 299 299 298 296 298 301 297 299 299 302 303 304 303 302 303 304 305 304 302 304 304 307 308 309 308 310 310 306 302 300 300 301 301 305 304 302 298 298 300 298 296 294
300 301 300 299 297 297 299 298 299 299 301 302 304 304 304 302 304 306 304 304 303 303 305 306 308 308 308 311 299 297 296 297 299 296 296 297 298 295 293 292 293 293 291 289
300 300 299 297 296 298 300 298 299 299 301 302 303 305 306 303 303 304 304 304 306 304 304 307 308 309 307 293 293 292 291 291 292 293 296 295 294 291 290 289 288 288 287 286
299 297 297 298 299 298 298 298 296 298 301 302 305 303 307 304 304 305 305 305 308 309 308 302 304 297 291 290 289 289 289 289 289 292 295 292 292 291 288 287 286 285 284 282
300 299 299 300 299 299 300 302 302 301 302 301 303 303 305 303 305 305 304 307 306 308 305 308 303 298 291 289 288 287 287 287 287 288 287 288 287 288 286 285 284 281 281 279
299 297 294 295 295 301 303 303 302 303 303 301 304 303 304 301 300 304 304 308 305 307 299 302 300 291 288 287 286 286 286 286 285 285 285 284 284 284 283 282 281 279 278 277
295 294 292 295 291 296 301 302 301 301 297 297 299 303 302 301 298 303 305 304 301 298 299 296 291 288 287 286 285 284 284 284 284 283 282 282 281 280 280 279 278 278 277 277
293 293 291 291 291 292 292 294 295 293 294 295 299 301 301 299 300 299 301 296 297 298 297 293 289 286 286 285 285 283 282 282 281 281 279 279 279 279 278 277 277 276 276 275
289 290 290 289 288 288 288 289 291 291 292 296 300 299 299 296 296 295 296 296 294 292 291 288 286 285 284 284 284 283 282 281 281 280 279 278 278 278 277 276 276 276 275 275
286 286 289 288 290 289 289 289 291 289 291 295 297 297 296 294 292 292 291 292 291 287 286 285 284 283 282 282 282 282 281 281 280 279 279 278 277 277 276 275 275 274 274 273
286 286 285 285 287 286 286 286 287 287 293 296 294 294 292 291 290 288 286 286 285 283 282 282 282 282 281 281 280 280 280 280 280 279 278 278 277 277 276 276 275 274 273 273

GFSNW_925_thetae_075.txt.gz
Theta_e
294 296 296 296 296 296 296 298 302 302 303 306 306 305 305 305 305 305 306 308 310 310 310 310 310 311 314 311 312 319 314 320 319 316 315 316 317 317 320 325 325 325 325 327
295 296 296 296 296 296 296 299 300 302 304 306 305 305 304 305 305 305 305 307 307 308 310 309 309 309 311 309 309 313 313 318 320 320 318 317 318 319 319 321 323 326 334 326
295 296 296 295 295 295 297 300 302 301 304 304 305 305 305 305 305 305 305 305 306 307 309 309 309 309 309 309 309 311 312 319 319 317 319 319 318 319 321 321 324 323 323 323
295 295 296 295 295 295 296 299 300 302 305 304 304 305 307 305 306 305 305 306 306 307 308 308 309 309 309 309 309 310 314 321 320 320 319 316 319 320 320 321 321 323 323 323
296 295 295 296 295 295 296 300 299 300 302 303 304 304 305 307 305 305 306 306 306 306 307 308 309 309 309 310 309 310 312 313 313 318 316 315 315 317 317 317 318 318 318 319
297 296 295 295 295 295 296 297 298 301 300 301 303 305 304 304 305 306 306 306 306 307 308 307 309 309 309 309 310 311 311 313 312 316 312 315 317 315 315 316 317 317 319 321
298 297 296 295 295 295 296 297 298 300 300 301 301 302 303 304 305 306 306 307 307 307 308 308 308 309 308 309 310 309 311 313 314 316 316 317 313 313 313 315 316 316 316 316
298 298 298 296 295 295 296 297 299 300 300 299 300 300 301 304 305 305 307 308 306 307 308 309 309 311 310 311 310 310 310 312 315 316 315 313 312 311 311 312 313 315 315 316
298 298 298 297 295 295 296 296 297 299 301 301 299 300 301 303 305 308 307 307 306 307 307 311 311 310 310 311 311 310 310 311 314 314 314 312 311 314 315 314 315 315 315 315
297 298 298 297 295 295 296 296 296 298 302 300 302 301 301 302 304 307 306 307 308 306 309 311 311 310 309 311 313 313 313 314 314 314 314 313 313 313 314 316 317 314 314 314
297 297 298 297 296 296 296 295 296 298 301 300 300 301 303 304 304 306 307 308 306 306 311 310 310 310 310 309 311 313 314 314 314 314 316 315 311 313 315 318 316 315 315 315
298 298 298 297 297 297 296 297 296 297 299 300 299 299 299 301 304 305 305 306 307 307 309 309 309 311 310 309 310 311 314 312 313 311 312 313 315 315 314 314 314 314 314 313
300 299 298 298 298 298 298 298 297 298 298 300 301 302 301 301 301 304 306 306 305 308 308 310 312 312 309 311 310 310 311 312 315 315 314 314 314 311 314 313 313 313 312 311
300 299 299 298 297 298 298 298 297 298 299 301 302 300 300 302 302 302 303 304 305 305 307 308 310 311 308 309 309 310 309 310 310 310 310 310 310 312 312 311 311 311 309 309
300 299 299 299 298 298 298 297 298 298 301 303 301 301 302 300 300 303 304 305 305 306 306 307 310 308 309 310 310 311 309 309 310 310 313 313 312 310 309 309 308 307 306 305
300 300 300 299 298 298 299 295 298 299 299 303 305 303 302 302 301 303 305 306 305 305 305 307 309 308 309 312 310 308 309 310 307 310 307 308 308 307 303 303 302 303 304 301
301 300 300 299 298 298 298 301 298 299 299 302 303 305 304 303 304 305 306 304 305 304 304 307 308 309 309 311 310 306 304 304 304 303 303 307 304 303 299 299 298 297 297 295
301 300 299 298 298 297 298 299 299 299 299 302 306 306 305 303 305 306 305 301 303 304 305 305 309 309 309 312 302 300 298 299 302 299 299 300 298 295 294 293 294 294 292 289
301 300 298 297 296 298 298 299 300 300 301 305 305 306 306 303 304 305 305 305 307 304 306 306 307 309 308 296 295 295 294 294 294 295 298 297 296 295 293 292 292 291 289 287
299 296 297 298 298 299 298 298 298 299 302 304 305 306 306 305 305 306 307 306 307 309 306 305 308 297 293 293 292 292 291 291 291 293 295 293 294 293 290 288 287 287 285 284
298 297 300 299 299 299 299 302 303 303 305 304 305 305 306 304 306 306 304 307 307 310 307 310 308 300 292 290 290 289 289 290 290 290 288 288 289 289 288 286 285 283 282 281
300 298 297 296 298 301 304 304 303 304 305 303 304 304 305 304 303 306 305 308 307 309 304 308 305 293 290 289 288 287 287 287 287 287 287 286 286 285 284 283 282 281 280 279
298 298 297 300 297 301 305 304 303 304 301 301 301 303 303 301 301 305 306 309 305 302 305 302 294 290 288 287 287 285 285 285 285 284 283 283 282 282 281 280 279 279 278 278
296 298 295 298 298 296 296 298 299 296 298 299 303 304 304 303 302 303 305 300 301 302 303 297 291 288 287 286 286 285 283 283 282 281 280 280 280 279 279 278 278 278 277 276
293 293 295 293 292 292 292 293 295 295 296 299 304 303 302 300 299 298 299 299 299 297 296 291 288 286 286 285 285 284 283 282 282 281 280 280 279 278 278 277 277 276 276 276
289 290 293 292 295 294 293 294 295 293 295 298 302 301 300 297 297 297 295 298 297 291 289 287 286 284 284 284 283 283 282 282 281 280 280 279 278 278 277 276 275 275 275 275
289 289 288 291 291 291 290 291 291 292 297 298 299 299 295 295 295 293 290 291 288 287 285 284 284 284 283 282 282 282 282 281 281 280 279 279 278 278 277 277 276 275 274 274

GFSNW_925_thetae_078.txt.gz
Theta_e
295 295 296 296 296 297 296 298 300 302 303 306 306 308 305 306 305 306 305 306 308 310 310 311 311 312 315 311 311 316 318 316 317 316 316 315 318 319 319 325 330 327 329 331
295 295 295 295 296 296 298 299 299 299 303 305 307 305 305 305 306 305 306 305 306 307 308 309 309 311 312 310 309 312 311 316 319 320 321 317 317 318 320 320 324 329 334 328
296 295 295 295 296 295 296 300 301 300 305 304 305 306 305 305 305 305 305 305 306 306 307 307 309 310 310 309 309 308 309 314 319 324 324 321 322 320 320 322 324 326 329 328
296 295 296 295 296 295 296 299 300 302 305 304 304 304 306 307 304 305 305 305 305 306 307 307 308 309 309 309 310 309 311 316 318 315 320 320 322 323 322 325 325 326 324 325
296 297 296 295 296 295 297 299 298 299 301 303 304 304 305 305 306 306 307 306 306 306 306 307 309 309 309 312 310 310 310 315 313 314 314 319 317 316 317 320 321 319 321 324
296 296 297 296 295 295 297 296 297 299 301 300 302 305 304 304 304 305 307 307 308 306 305 308 310 310 311 311 312 311 312 312 313 314 313 315 318 316 316 316 317 317 318 318
297 296 297 297 296 295 296 297 297 300 301 300 302 301 303 304 303 305 305 306 308 308 308 309 310 310 310 311 311 309 310 311 314 317 315 318 315 314 314 315 315 316 317 318
298 298 299 298 297 295 296 297 298 300 300 300 300 300 301 304 304 305 306 305 306 306 310 309 308 309 309 309 309 309 310 311 315 317 315 313 312 312 311 312 313 314 315 316
297 297 298 298 298 296 296 297 298 299 302 300 299 299 300 301 303 304 305 306 306 307 309 309 308 309 308 310 310 310 310 313 314 316 315 314 312 311 314 314 314 316 316 316
297 297 297 298 298 298 296 296 297 298 299 299 300 301 301 301 302 304 306 307 308 308 309 308 309 309 309 312 312 312 313 314 315 315 315 313 311 315 315 317 319 315 315 316
298 298 298 298 298 298 296 297 297 298 299 299 299 300 300 303 304 306 306 307 308 308 308 308 308 311 311 311 311 314 313 314 315 314 314 315 312 313 316 319 317 315 315 314
298 299 299 297 298 298 295 297 296 297 298 298 299 299 299 300 302 304 305 305 306 307 307 308 309 312 314 311 311 313 316 312 313 312 312 312 315 317 315 314 315 314 313 312
299 299 299 298 298 297 296 296 296 297 298 299 299 300 300 301 300 302 302 306 306 306 305 309 311 312 311 313 311 310 312 312 315 315 312 314 315 314 313 312 312 311 310 310
299 299 300 299 298 298 297 296 296 297 298 298 300 300 300 300 301 302 301 304 304 305 304 305 309 310 310 312 310 311 311 313 313 314 313 313 312 311 310 310 309 308 307 306
300 300 300 299 298 298 298 297 297 297 299 302 302 300 301 301 300 301 303 304 306 306 306 306 308 308 310 311 311 310 311 311 313 316 311 313 310 307 306 306 305 305 305 303
300 300 300 299 299 298 299 295 297 297 298 301 306 303 302 301 302 302 304 305 306 305 305 305 308 308 310 311 311 309 308 307 306 307 305 308 306 302 301 302 301 301 300 298
300 300 300 300 299 299 297 300 299 298 298 302 303 304 304 303 303 304 304 305 305 305 303 305 308 308 309 312 309 305 301 303 303 301 303 307 301 300 297 297 298 297 294 292
300 300 300 300 299 298 298 300 299 298 299 301 303 306 305 304 306 306 305 304 303 303 305 306 307 307 309 310 302 299 297 299 298 297 300 299 298 297 296 295 295 295 291 289
300 301 300 297 296 297 298 299 299 299 300 302 304 306 307 304 304 305 305 302 304 304 306 307 307 308 303 297 296 295 294 294 294 295 297 297 296 294 292 291 290 289 287 286
299 297 296 297 298 298 299 299 296 299 301 303 305 306 306 305 306 307 306 306 307 307 306 306 306 298 295 294 293 292 292 292 292 293 293 292 293 292 289 287 286 286 284 283
297 298 300 298 299 298 298 300 303 301 304 304 305 305 306 305 306 306 306 307 307 308 308 308 306 299 293 291 290 289 289 290 289 290 289 289 289 289 287 286 284 283 282 281
300 298 297 297 298 300 303 305 304 305 305 305 306 306 305 305 304 306 303 306 307 308 306 309 301 293 290 289 288 287 287 287 287 286 286 285 285 285 284 283 281 281 280 279
299 299 299 302 299 305 305 304 305 304 303 302 304 304 302 303 303 305 307 306 307 304 307 300 294 290 288 288 287 285 284 284 284 284 282 282 281 281 280 280 279 278 278 277
298 299 296 300 299 297 297 299 300 297 299 300 304 303 304 301 303 303 307 301 302 305 305 296 290 288 287 287 286 284 283 283 282 281 280 280 280 279 279 278 278 277 277 276
294 296 296 294 293 294 295 296 297 296 296 299 303 304 302 302 301 301 301 301 302 297 295 291 287 286 286 285 285 284 283 283 282 281 280 279 279 278 277 277 276 276 275 275
291 291 295 295 296 295 295 296 296 295 296 300 304 303 300 298 299 298 298 301 297 292 289 287 286 285 284 284 283 283 282 282 281 280 279 279 278 277 276 276 275 275 275 275
290 291 291 294 293 293 293 293 294 294 299 301 302 299 297 297 297 294 291 291 289 287 285 285 284 284 283 282 282 282 282 281 281 280 280 279 279 278 278 277 276 275 274 274

GFSNW_925_thetae_081.txt.gz
Theta_e
296 296 295 294 295 296 296 297 299 301 301 302 303 303 304 305 305 306 305 306 305 307 309 310 311 312 314 309 309 313 313 314 315 313 313 314 317 319 320 327 329 326 330 330
296 296 296 296 294 295 296 298 296 299 298 301 304 305 304 304 305 305 305 306 306 306 306 308 309 310 312 309 310 309 310 313 318 319 320 319 318 319 320 322 323 327 330 332
296 296 295 296 296 295 295 297 293 298 299 300 304 304 304 305 304 304 305 304 304 305 306 306 307 308 311 309 310 310 308 312 316 321 324 320 323 320 320 322 327 324 328 326
296 296 296 295 296 295 295 297 294 299 300 301 303 304 305 307 307 305 305 304 304 305 306 306 306 307 309 310 312 309 309 313 315 315 315 316 322 321 322 324 323 326 325 327
296 296 297 296 295 295 295 297 294 297 299 301 302 302 303 303 304 304 307 308 307 306 305 305 306 310 309 309 312 312 311 311 313 314 313 313 316 319 320 319 322 322 322 323
296 297 297 295 296 295 295 296 296 296 298 300 302 302 304 304 303 303 304 307 308 308 308 307 308 309 309 310 311 312 313 313 312 313 313 317 317 315 316 318 322 321 322 320
297 297 297 297 296 296 295 296 296 295 295 297 299 300 301 303 304 305 304 306 306 308 307 306 308 308 309 310 311 310 311 311 311 312 313 317 317 315 315 316 316 315 315 318
297 297 297 298 297 297 296 295 296 296 292 297 298 299 300 301 303 304 304 306 306 305 307 309 309 307 308 309 311 310 309 310 308 312 313 314 312 313 312 312 313 315 313 317
297 297 297 297 298 297 297 296 296 296 298 296 298 299 300 300 300 302 302 306 304 306 308 309 309 307 308 308 308 308 309 308 309 309 316 313 312 313 314 314 316 316 316 316
296 296 297 297 298 297 297 296 296 297 298 296 298 299 300 301 301 301 303 304 306 306 305 309 305 306 307 309 311 311 309 308 311 310 313 314 312 315 315 316 319 315 314 314
296 297 297 298 298 298 298 296 296 297 298 297 298 298 299 300 301 303 302 302 303 305 302 305 304 304 308 310 311 313 311 310 310 310 310 312 312 314 317 316 314 313 312 312
296 297 298 298 299 298 298 296 295 297 296 296 297 298 298 299 299 301 302 301 304 306 305 305 305 304 307 310 313 312 314 311 311 310 310 313 314 316 314 313 313 312 310 309
298 299 299 298 299 298 298 296 296 297 297 296 296 296 296 298 300 301 300 303 303 306 301 304 306 308 309 310 309 312 313 311 314 312 314 313 312 310 309 309 308 308 306 305
298 299 299 299 299 297 298 296 296 296 296 292 295 296 298 297 298 299 301 301 300 303 301 303 304 308 308 310 309 310 312 312 312 313 312 311 308 307 306 306 305 305 303 301
299 299 299 300 299 298 298 296 296 296 295 298 299 300 299 300 300 298 301 301 302 302 304 305 306 306 308 308 309 312 309 309 314 311 306 308 305 304 303 303 302 299 299 295
299 300 300 300 299 298 297 295 296 295 296 298 299 301 301 301 301 300 300 302 302 302 303 303 305 306 309 306 310 305 302 302 301 301 303 301 299 298 298 299 297 294 292 291
300 299 300 300 299 299 297 298 297 297 296 297 301 299 303 302 302 300 300 302 302 304 303 304 303 306 307 306 308 299 297 300 297 297 302 301 297 296 295 295 293 291 288 287
300 300 300 300 299 298 298 299 300 297 297 298 300 300 304 302 302 301 301 302 303 303 304 304 304 306 306 303 297 295 294 295 294 296 298 297 294 292 291 290 290 288 287 285
300 299 300 297 295 296 298 299 298 298 298 300 299 301 306 302 303 302 302 302 303 303 303 304 305 304 296 296 293 292 292 292 292 293 292 293 292 289 288 288 287 286 285 284
300 298 295 295 297 298 298 298 299 298 300 301 300 302 305 302 302 301 303 303 304 306 304 304 302 296 293 291 290 290 289 290 290 290 290 290 291 288 286 285 284 283 282 280
297 296 298 299 298 298 296 297 299 299 300 298 302 303 304 304 304 304 302 304 303 304 303 303 301 295 292 289 288 288 288 287 288 287 287 287 287 286 284 283 282 281 279 278
298 298 298 297 297 298 301 302 300 300 301 302 300 304 304 302 303 301 301 303 303 305 303 306 296 291 289 288 286 285 285 285 284 284 283 283 282 282 281 280 279 279 278 277
299 298 298 300 297 302 304 300 300 303 301 301 303 302 300 301 301 301 303 303 304 300 304 293 290 288 287 286 285 283 282 282 282 281 280 280 279 279 278 277 277 276 276 275
297 297 294 297 298 294 294 298 298 297 298 300 299 301 300 299 301 299 304 299 300 303 298 289 286 285 285 285 284 282 280 279 278 278 278 278 278 277 277 276 276 276 275 275
293 294 295 292 291 293 295 296 296 295 295 298 301 297 298 296 296 295 296 297 297 293 287 284 283 282 282 280 281 279 279 277 278 279 278 277 277 276 276 276 275 275 275 274
290 290 294 294 293 292 293 295 295 294 295 296 298 300 297 298 297 297 292 297 289 286 285 283 280 281 281 281 280 280 281 280 279 279 278 277 276 276 275 275 274 274 274 273
290 289 288 291 290 292 291 292 293 293 296 295 297 297 297 296 296 289 285 283 283 283 283 283 281 279 279 280 281 281 281 280 280 279 278 277 276 276 276 275 274 274 273 273

GFSNW_925_thetae_084.txt.gz
Theta_e
296 296 296 295 294 294 295 296 297 299 299 298 299 299 303 304 304 304 305 306 307 306 307 308 309 313 310 308 309 312 310 312 316 314 312 312 315 319 320 326 328 325 328 328
295 296 296 295 295 295 295 297 297 297 298 299 299 302 302 302 303 304 305 305 306 305 306 306 308 310 310 308 309 308 308 315 316 318 318 319 320 319 319 320 321 324 327 329
296 296 295 295 295 295 295 295 297 294 298 298 301 304 304 304 304 304 304 304 305 305 305 306 307 307 309 308 309 309 308 310 315 318 319 320 320 319 320 323 326 323 323 324
295 296 296 296 296 295 295 294 293 296 299 301 301 302 305 305 305 306 305 305 305 305 305 305 305 306 308 309 311 308 308 309 312 314 315 315 316 318 320 321 323 326 323 324
295 296 296 296 296 295 295 294 293 294 296 300 301 302 303 303 303 303 304 306 307 308 308 309 310 309 308 309 310 311 310 311 311 311 312 312 315 313 321 320 320 321 322 321
295 296 296 296 297 296 295 294 295 294 295 297 298 301 301 301 303 304 304 304 307 308 308 307 306 306 307 308 310 310 311 312 310 313 312 312 315 315 317 320 319 319 323 320
296 296 296 297 298 295 294 294 294 294 294 295 296 297 298 300 301 303 304 305 306 306 306 305 306 307 307 308 309 309 310 311 312 312 311 313 312 309 311 317 317 319 319 320
296 296 296 297 297 297 295 294 295 296 290 295 296 297 298 300 300 303 303 302 305 304 306 307 307 305 306 307 309 309 309 308 307 309 311 310 306 308 313 312 317 316 318 319
295 295 296 296 297 298 296 295 294 295 297 294 297 298 299 298 298 299 300 304 303 304 305 305 306 308 307 308 308 309 309 308 307 306 312 311 310 311 313 314 319 314 315 316
295 295 296 296 297 297 298 296 295 295 296 295 296 297 298 299 299 299 300 302 301 302 302 307 305 306 306 307 310 309 307 305 309 307 307 310 310 314 314 317 317 313 312 312
294 295 295 296 297 298 298 297 295 295 293 295 296 297 297 298 300 302 301 298 300 304 302 303 304 302 305 307 308 309 311 311 308 307 309 310 313 314 315 314 310 310 310 310
294 294 295 296 297 298 298 298 296 295 294 294 296 296 297 296 297 298 301 300 302 305 307 303 304 302 301 306 309 311 312 311 310 308 307 311 311 313 311 310 310 309 308 307
295 295 296 297 299 298 298 297 296 296 296 296 295 295 295 295 296 298 296 300 300 299 298 303 303 305 307 307 309 312 308 307 312 312 311 310 309 307 307 306 306 304 304 303
297 297 298 299 299 298 299 296 296 295 295 293 294 295 296 296 296 296 299 300 299 299 302 302 303 303 305 306 307 308 309 311 310 311 309 308 306 304 303 301 302 298 296 296
297 297 298 299 299 299 298 297 296 296 296 294 295 297 298 298 298 297 298 301 301 301 303 302 302 302 306 307 307 305 304 305 308 307 302 305 302 301 300 298 295 294 293 290
299 299 299 299 300 298 297 294 296 296 295 295 295 297 300 301 299 298 298 301 301 303 302 301 304 303 306 307 309 300 301 299 298 303 298 297 296 294 296 294 291 290 289 287
299 299 299 299 300 297 297 296 297 296 295 296 298 297 298 301 299 297 297 300 302 301 303 303 303 303 305 304 304 297 295 295 296 299 301 297 295 293 293 291 289 287 285 284
299 299 300 300 300 298 297 298 299 296 295 298 299 296 301 300 298 302 300 300 302 301 302 303 304 303 302 299 295 293 292 294 293 294 294 293 291 290 289 289 288 286 285 284
299 300 300 300 294 296 298 299 296 297 298 298 299 298 299 301 300 302 301 301 302 300 303 303 301 298 293 292 290 289 289 290 291 292 291 291 289 287 286 286 286 285 284 282
300 299 295 294 297 298 297 298 296 297 299 300 300 297 302 302 300 300 302 300 302 303 303 303 297 293 290 289 288 288 288 288 288 289 289 290 288 286 284 284 282 281 279 278
296 295 296 297 298 297 296 297 298 298 299 298 298 299 303 303 303 302 299 303 302 304 302 303 298 294 289 287 286 286 286 285 285 285 284 284 285 284 283 282 280 279 278 277
297 298 298 297 296 297 299 299 299 297 298 298 297 300 303 301 302 302 300 300 303 303 303 297 290 289 287 286 284 284 284 283 282 282 282 282 281 281 280 279 278 277 276 275
299 298 297 298 297 300 300 301 301 300 301 301 301 301 300 300 300 301 301 301 302 300 294 290 288 288 286 284 282 281 281 281 280 279 279 279 278 278 277 276 275 275 275 274
296 295 290 296 290 288 289 294 298 296 298 300 299 300 300 298 299 296 302 295 297 297 290 289 285 284 283 283 282 280 276 276 275 275 275 275 275 275 275 275 275 275 274 274
292 292 289 286 286 287 294 295 295 295 295 298 299 296 296 296 295 295 294 296 293 290 285 281 281 280 280 279 280 278 277 274 275 276 275 275 275 275 275 275 275 274 274 274
290 289 292 291 288 290 292 293 294 294 295 296 295 295 292 292 292 291 288 293 287 282 279 281 277 277 276 277 277 277 278 277 277 277 276 276 275 275 274 274 274 274 273 273
289 288 285 287 286 287 290 290 290 292 296 292 293 294 295 294 289 284 282 279 277 281 281 278 277 279 277 277 279 279 279 278 278 277 276 276 275 275 275 274 274 273 272 272

GFSNW_925_thetae_087.txt.gz
Theta_e
295 295 296 296 296 295 295 295 294 296 296 298 292 296 302 303 302 303 303 306 305 305 306 308 309 312 311 308 311 312 309 313 315 315 313 312 312 316 318 321 323 326 325 326
295 295 296 296 295 295 295 295 295 296 297 299 294 299 300 300 300 301 302 304 306 305 306 306 308 308 308 308 308 308 308 313 314 315 317 317 318 319 318 320 321 324 323 324
295 295 296 295 295 295 295 294 295 294 296 298 299 300 301 304 303 303 304 304 305 305 305 305 306 307 309 309 310 311 307 310 312 311 313 318 319 319 318 320 323 324 324 322
294 295 295 296 296 296 295 294 292 293 297 299 298 299 302 304 304 304 305 306 307 307 305 305 308 308 308 310 311 308 307 308 310 311 312 313 314 315 315 319 320 324 322 323
295 295 296 296 295 296 295 292 294 294 296 297 298 299 302 303 304 303 303 305 305 307 307 308 308 307 308 309 307 310 309 310 309 310 310 310 312 311 313 316 320 321 320 322
294 295 296 296 295 296 294 293 294 295 294 295 296 297 297 299 301 304 303 303 306 306 308 306 306 305 306 307 309 307 309 310 310 312 309 310 311 311 308 319 319 318 321 320
294 295 295 296 296 297 294 293 294 294 293 295 296 296 297 297 300 302 302 303 305 304 305 305 305 305 307 306 306 307 308 310 309 311 309 310 308 306 308 311 318 317 317 318
294 295 295 295 296 297 295 293 294 294 292 295 296 297 298 298 298 299 302 303 304 303 304 304 306 305 305 305 306 307 306 307 306 309 310 307 307 306 311 314 313 315 314 317
294 295 295 295 296 297 296 294 294 293 290 293 295 297 298 298 299 300 301 302 301 303 302 304 307 306 306 307 307 307 306 305 306 305 310 306 306 310 312 313 315 313 316 317
294 294 295 295 296 297 298 296 294 293 288 292 295 295 297 298 298 299 301 299 301 300 302 304 306 307 305 306 308 308 307 306 309 308 309 307 307 312 312 315 314 312 312 312
294 294 294 294 296 297 297 297 296 294 290 291 295 295 295 297 298 297 297 297 297 302 303 303 303 302 304 306 305 308 307 307 306 308 310 309 311 312 312 311 309 309 309 307
294 294 294 294 294 296 297 298 296 295 294 292 295 294 295 296 296 295 297 299 299 303 304 304 304 303 299 305 306 308 304 307 311 308 307 310 308 309 308 309 308 308 307 305
294 295 295 295 295 296 297 298 296 295 295 294 293 293 294 296 297 297 294 296 300 300 297 301 303 303 305 303 305 308 306 305 307 310 311 309 307 303 303 301 299 299 300 300
295 296 296 296 297 298 298 297 296 295 296 296 294 295 295 295 295 296 297 298 299 299 300 303 302 303 302 303 305 308 307 305 308 307 306 305 304 303 300 298 297 295 292 292
298 297 296 297 297 299 299 298 296 296 296 293 293 295 296 296 296 294 295 297 299 300 302 302 302 299 305 304 306 301 302 301 303 305 300 301 299 299 297 295 293 291 290 288
298 297 297 298 299 299 297 294 295 296 295 295 293 294 297 298 297 295 297 299 300 301 302 301 300 302 306 300 304 298 297 297 299 302 297 295 294 294 292 291 289 288 286 285
299 299 299 299 299 298 297 296 296 296 295 295 296 295 296 300 297 295 295 298 299 301 302 301 301 301 304 303 302 295 295 294 295 296 297 296 292 292 290 288 287 285 284 283
298 299 299 300 299 297 297 298 297 296 295 296 296 297 297 299 297 300 298 299 299 302 299 302 303 302 301 298 293 291 291 292 292 292 292 291 290 289 288 287 286 285 284 283
298 299 299 299 295 296 297 298 296 296 297 296 298 296 296 298 298 301 300 296 295 298 298 300 302 299 294 290 290 289 289 290 290 291 291 289 288 287 285 285 285 284 282 281
299 299 297 294 295 297 296 297 296 297 298 299 298 296 300 302 301 301 301 298 295 303 301 300 296 290 289 288 288 287 287 287 286 289 289 289 286 285 283 282 281 280 279 277
297 293 296 296 297 296 296 296 298 297 299 298 298 297 299 301 301 299 297 301 301 303 299 304 296 291 288 286 285 285 284 284 284 284 283 284 284 283 282 281 280 279 278 276
294 298 298 297 296 297 298 297 298 297 298 294 297 301 302 299 301 301 300 301 302 302 300 295 288 288 286 285 284 283 282 282 281 282 282 281 281 281 280 279 277 276 275 274
298 298 297 299 297 299 293 298 299 298 299 298 301 301 299 299 296 299 298 301 298 299 293 288 286 287 285 283 282 281 280 280 280 279 279 278 277 277 276 275 275 274 274 273
296 296 293 296 286 288 289 290 295 296 298 298 299 299 299 297 296 298 302 298 295 293 288 286 284 284 283 282 281 279 276 275 274 273 274 273 274 274 275 274 274 274 273 273
293 292 288 286 284 286 291 293 295 295 295 297 297 296 295 293 295 292 291 293 289 289 285 279 279 281 280 278 278 276 275 272 273 274 274 274 274 274 274 274 274 274 273 272
290 288 292 289 286 289 290 293 294 294 295 296 296 294 291 292 290 290 287 293 290 282 278 277 277 278 274 275 276 275 276 276 275 275 275 275 275 274 274 274 274 274 273 273
288 287 284 281 279 283 289 289 290 290 295 293 290 289 292 291 288 286 283 280 275 279 277 276 274 276 277 276 276 277 277 276 276 276 275 275 275 274 274 273 273 273 272 272

GFSNW_925_thetae_090.txt.gz
Theta_e
295 295 295 296 296 295 294 293 292 295 296 295 297 292 298 299 300 301 302 305 307 308 306 308 312 312 313 309 310 311 310 313 316 315 314 312 312 316 316 315 317 322 323 319
295 295 294 296 295 295 294 293 294 295 296 297 297 296 299 299 299 299 301 304 305 305 306 308 309 310 309 310 308 308 307 313 311 318 316 313 317 318 318 319 317 321 322 318
294 295 295 295 295 296 294 292 293 290 296 298 297 299 299 298 301 299 305 305 305 306 306 307 309 309 309 310 309 311 309 310 309 311 310 315 317 316 317 318 319 321 321 320
294 294 295 295 295 296 294 293 290 293 292 294 296 297 300 303 306 303 304 305 306 307 308 307 309 308 308 308 309 309 307 308 309 310 310 312 312 312 314 318 317 318 315 319
293 294 295 295 295 296 294 292 293 292 293 295 296 296 298 299 300 304 305 304 306 306 307 308 308 306 308 309 307 308 308 310 309 310 309 308 309 309 309 310 312 316 317 318
294 293 294 295 295 296 294 293 293 292 292 294 294 297 296 296 298 301 302 302 305 305 306 305 305 304 304 307 308 307 308 308 308 309 309 307 308 308 306 305 316 317 319 318
295 293 295 295 295 296 296 293 293 294 290 293 295 295 296 297 298 301 301 302 303 305 303 303 304 304 305 306 307 307 308 308 308 310 309 307 306 304 305 310 311 316 316 315
293 293 295 295 295 296 296 294 293 294 288 294 294 295 296 296 298 299 300 303 302 301 303 303 305 304 304 304 304 305 305 306 306 307 309 306 305 307 311 310 309 312 313 315
292 293 294 294 295 296 296 295 294 295 290 291 294 296 297 298 298 298 300 300 299 300 301 303 306 306 306 307 305 305 304 304 305 305 309 305 304 307 310 310 305 311 312 315
292 293 294 294 295 296 297 296 296 294 294 292 294 295 297 297 297 297 299 298 299 298 301 303 306 306 305 305 307 307 306 306 308 307 307 307 306 310 310 310 308 309 308 312
292 293 294 294 294 295 296 297 296 294 293 291 293 294 294 295 296 295 296 296 296 302 302 304 303 302 303 305 304 307 306 306 305 307 308 308 308 310 310 310 308 307 305 303
292 293 294 294 294 294 296 297 296 295 295 293 294 294 294 295 296 294 295 297 297 302 298 301 302 305 300 303 306 306 302 307 310 308 307 308 305 305 303 304 303 304 303 301
293 294 294 294 295 295 296 297 296 294 295 296 293 294 295 295 294 295 293 294 298 298 297 298 303 304 303 303 303 305 302 304 306 307 305 305 304 302 299 297 297 297 297 296
293 293 294 294 295 295 296 297 296 294 295 293 293 294 294 295 294 296 296 296 298 298 299 301 302 303 302 303 303 306 302 303 302 307 303 303 300 298 298 296 294 291 290 290
294 295 295 296 296 296 297 297 296 297 296 294 293 294 295 295 294 295 296 296 296 298 301 302 301 299 303 304 304 299 299 299 299 303 298 300 296 294 293 291 290 290 289 287
294 297 298 297 296 297 297 293 296 296 296 297 293 293 295 296 294 293 293 294 296 300 302 303 300 300 303 301 297 297 297 297 297 300 297 295 293 291 290 289 287 285 284 284
297 299 297 297 298 298 297 295 296 296 295 295 294 294 295 296 295 293 293 296 298 299 300 300 299 299 303 303 302 294 295 294 293 293 295 296 291 290 288 287 285 284 283 282
297 298 299 299 299 297 297 298 296 295 295 295 297 295 297 297 297 297 294 295 297 300 301 301 303 301 300 298 293 291 290 291 290 291 291 290 289 287 286 286 285 283 282 281
296 298 299 298 296 296 297 297 296 295 295 295 295 295 295 298 299 300 299 296 296 296 299 298 298 297 299 289 290 289 289 288 287 289 290 287 286 285 283 283 283 282 281 279
296 298 296 293 294 297 296 295 296 296 297 297 298 293 295 298 299 300 298 294 293 298 297 298 299 289 289 288 287 286 286 285 285 288 289 286 286 284 282 281 280 279 277 276
297 293 296 296 296 296 296 296 297 297 298 297 298 294 297 297 301 299 297 296 293 297 298 300 294 291 288 286 285 284 283 283 283 283 283 283 284 283 281 280 279 278 276 275
295 296 297 297 296 297 298 295 296 297 296 295 297 297 298 299 298 298 298 301 301 300 299 296 290 288 286 285 284 283 282 281 281 281 281 281 281 280 278 277 276 275 274 273
298 297 296 298 297 298 292 295 299 297 295 292 299 301 300 297 296 298 300 300 297 297 292 293 285 286 284 283 281 280 280 280 280 279 278 277 276 276 275 274 273 273 272 272
295 296 295 294 293 288 289 291 290 292 297 298 298 299 299 298 298 299 300 293 295 292 289 288 282 283 283 281 280 278 274 273 273 272 273 273 273 273 274 274 274 273 272 272
294 292 291 287 284 285 291 294 296 295 296 291 297 296 294 289 291 292 290 296 294 290 285 277 279 280 280 278 278 275 274 270 271 273 273 273 274 273 273 274 274 273 273 272
289 286 287 288 292 291 292 293 295 294 295 290 294 295 291 289 287 291 289 294 292 283 277 277 277 275 272 271 272 273 274 274 274 274 274 274 274 273 273 273 273 273 273 272
288 283 282 279 281 285 287 289 290 290 294 287 289 289 290 289 285 286 283 283 278 278 277 273 272 275 273 271 274 275 275 275 275 275 274 274 274 274 273 273 273 273 272 272

GFSNW_925_thetae_093.txt.gz
Theta_e
295 295 295 295 296 295 294 291 291 293 295 296 298 298 297 297 296 297 300 303 304 307 307 310 313 312 310 309 311 312 312 315 317 316 314 314 315 317 316 317 318 318 319 318
294 294 295 295 296 295 294 292 292 293 296 295 296 297 297 297 297 297 299 300 302 305 309 311 313 311 309 310 310 309 311 313 321 318 315 312 315 317 319 318 317 317 320 318
294 294 294 294 295 295 294 291 291 291 294 296 296 297 296 298 299 299 301 305 304 307 308 310 310 311 308 309 311 313 313 311 311 315 314 314 313 312 315 317 317 315 316 315
293 293 294 293 295 295 294 292 289 293 292 294 295 296 297 298 299 304 305 306 306 308 309 309 309 308 309 308 308 310 310 312 311 310 311 313 312 311 311 314 315 316 313 313
293 293 294 293 295 296 294 294 293 293 294 294 294 296 297 297 298 302 305 303 303 306 307 308 308 306 308 308 308 308 309 312 310 308 309 308 309 308 309 310 311 312 313 316
293 294 293 293 295 296 295 293 293 294 293 294 294 296 295 296 297 299 301 301 303 305 306 305 305 305 305 305 308 307 309 309 307 308 309 307 305 307 305 306 307 314 315 316
293 295 293 295 295 296 296 293 293 294 293 293 294 294 295 296 296 299 300 302 303 304 301 303 303 305 305 306 307 307 309 308 309 308 309 306 305 306 306 308 309 313 315 316
295 293 293 294 295 295 296 294 293 295 293 294 294 295 295 295 298 299 300 302 300 300 302 304 304 305 304 305 307 306 307 308 309 308 307 306 305 310 309 309 308 312 313 315
294 292 292 294 294 295 297 295 295 294 294 293 294 295 296 298 299 298 300 300 298 300 302 304 306 306 306 306 307 306 306 306 308 308 306 306 306 308 310 311 306 309 310 317
293 291 293 294 294 294 297 295 295 293 295 293 293 296 296 296 296 296 298 298 299 299 302 306 306 306 304 305 306 307 308 307 307 306 306 306 308 309 309 308 309 307 306 305
294 291 291 293 293 294 295 297 296 294 294 293 292 293 294 294 295 296 297 298 297 300 303 304 305 305 305 306 306 308 307 308 307 307 308 308 307 309 311 309 306 305 303 300
293 293 292 292 293 294 295 296 296 295 294 294 293 293 294 294 294 296 295 297 297 300 299 301 301 303 303 303 307 306 309 308 308 309 310 304 303 302 300 301 301 301 300 298
293 292 293 293 294 294 295 296 296 294 294 296 295 295 295 295 294 294 296 295 297 298 297 299 300 303 303 304 304 305 305 303 306 307 304 300 300 299 297 295 293 294 295 295
292 292 293 294 294 294 295 295 296 295 294 296 294 294 293 295 294 294 294 295 298 297 298 300 300 301 302 304 303 305 302 301 300 305 301 301 296 296 295 293 292 291 289 290
292 293 293 293 294 294 295 295 296 296 296 296 295 294 294 294 294 294 295 296 297 298 299 301 302 300 303 305 303 300 298 299 300 302 297 297 294 292 291 290 288 287 288 287
292 293 293 295 296 296 297 294 296 296 296 296 298 294 294 294 293 293 294 295 296 298 300 302 302 301 303 303 303 297 297 296 296 299 296 293 291 290 289 288 286 285 284 284
292 294 295 297 298 297 296 297 296 296 296 295 296 296 295 294 293 293 294 294 297 299 301 302 301 301 302 303 302 295 294 293 292 292 294 293 290 289 287 286 284 283 282 281
294 296 297 297 297 297 296 297 296 295 295 295 296 296 297 296 297 297 294 297 298 299 300 300 302 302 301 302 293 291 290 292 289 291 290 290 288 286 285 285 284 283 282 281
295 296 298 297 296 296 297 296 295 296 295 296 296 297 299 299 299 298 299 298 299 298 301 300 300 299 301 292 291 290 288 288 287 289 288 287 286 284 283 283 283 282 280 279
295 296 294 294 295 297 296 296 295 296 297 297 298 294 299 300 299 298 298 297 299 299 299 299 301 296 289 288 287 286 286 285 285 289 288 286 285 283 282 281 280 279 277 276
294 293 295 296 296 296 296 297 297 295 297 297 297 295 298 298 301 300 297 298 297 300 300 299 299 295 289 286 285 284 283 283 283 283 283 283 283 283 281 280 279 277 276 275
295 295 296 295 294 297 296 296 296 296 296 296 297 297 297 299 298 300 298 300 299 300 300 300 297 289 286 285 284 282 281 281 281 281 281 280 280 279 278 277 276 275 274 273
296 296 296 298 297 299 295 295 298 297 296 294 297 300 298 297 297 300 300 299 300 298 299 298 289 286 285 283 281 280 279 280 279 278 277 277 276 276 275 273 273 273 272 272
296 297 298 294 293 294 291 294 293 292 292 294 299 298 300 298 300 300 300 298 298 299 297 295 287 285 283 282 280 278 275 274 274 273 273 272 272 272 273 273 273 273 272 271
294 295 297 292 286 285 290 295 296 296 296 295 298 298 297 295 297 295 295 298 300 297 296 285 284 283 281 279 278 276 274 273 273 273 273 273 273 273 272 273 273 272 272 271
290 288 288 289 292 292 294 295 296 294 295 292 295 295 295 293 292 295 297 297 298 291 283 280 281 278 276 275 275 273 273 274 273 273 273 273 273 273 273 273 273 273 272 272
288 286 282 284 282 285 290 291 291 290 296 296 293 292 294 290 289 291 286 290 284 280 279 279 278 278 276 273 274 274 274 273 274 274 274 274 274 273 273 273 273 273 272 272

GFSNW_925_thetae_096.txt.gz
Theta_e
294 295 294 293 295 295 295 297 299 296 298 301 299 300 298 298 299 299 298 302 302 304 306 310 315 316 313 311 312 312 315 314 314 314 315 314 314 315 316 317 320 319 320 320
293 294 294 293 295 295 296 298 297 296 299 300 299 299 299 299 299 300 298 299 301 303 307 311 311 314 310 311 312 312 313 316 319 319 317 315 316 317 318 319 318 320 322 322
293 293 294 293 295 295 296 298 300 298 298 298 298 298 299 300 299 303 303 302 307 308 310 309 312 312 310 309 311 313 312 313 315 317 317 316 318 317 317 317 319 317 318 315
293 292 293 293 294 295 296 297 297 296 300 299 298 297 299 299 301 301 305 306 305 307 308 308 310 309 309 307 309 311 313 312 312 313 312 312 311 310 311 312 313 315 313 313
293 292 292 293 295 295 296 299 298 296 297 297 298 297 299 298 299 302 303 305 306 307 307 307 309 308 308 309 308 309 310 312 309 311 309 308 308 307 307 309 310 311 313 315
292 293 294 293 294 295 296 295 295 297 297 297 298 297 296 296 298 300 302 304 305 307 305 304 305 306 307 307 309 310 309 308 307 311 308 306 307 308 307 309 311 311 313 314
293 293 294 293 293 295 295 295 296 297 298 297 297 296 296 297 297 300 302 303 304 304 303 306 306 307 307 307 309 308 307 306 307 308 306 305 308 308 309 310 312 312 314 317
293 294 295 293 294 296 296 295 295 297 299 297 296 297 297 299 300 300 301 302 301 303 305 306 304 306 307 308 308 308 309 307 307 307 306 306 310 310 310 310 311 311 313 315
294 294 292 291 294 295 296 295 295 295 299 298 296 297 298 299 300 299 300 301 301 303 306 306 307 306 306 307 307 308 308 308 307 308 305 307 311 310 310 310 311 307 308 311
293 294 292 291 293 294 295 296 295 294 299 298 297 298 298 298 297 298 299 300 302 303 307 307 307 307 306 306 306 308 309 309 309 308 308 308 309 310 309 311 313 307 305 302
293 293 292 292 293 294 295 296 295 295 297 298 297 297 297 297 298 299 299 302 301 303 305 305 306 307 307 307 308 309 309 310 310 309 309 310 303 308 310 305 304 303 301 299
293 294 292 292 293 293 295 296 294 295 295 297 296 296 296 296 297 298 299 300 300 302 303 303 302 305 305 305 308 307 310 307 309 308 307 302 299 300 297 298 298 300 300 298
293 293 293 292 293 293 294 297 294 294 295 297 297 299 298 297 296 296 299 298 299 301 299 300 301 305 305 306 305 305 306 304 308 308 302 299 299 297 296 295 294 293 295 295
293 293 293 292 293 293 294 296 295 295 296 298 299 296 297 296 296 296 296 297 297 300 300 301 301 303 304 305 305 304 305 304 303 305 302 300 297 295 295 294 293 292 292 292
293 292 292 293 293 293 293 296 296 296 297 300 300 298 298 296 296 296 296 297 298 300 300 301 303 303 304 305 305 304 300 300 304 303 299 299 295 293 292 291 290 290 291 290
292 292 293 294 293 293 295 295 296 297 297 297 301 298 297 297 296 297 297 298 299 299 300 302 303 303 304 305 303 299 298 297 297 298 296 294 292 291 290 290 289 288 288 288
292 292 293 293 294 295 295 298 297 296 296 296 300 300 299 297 296 297 298 298 299 299 300 302 302 303 303 303 303 297 296 295 295 295 295 294 293 292 290 288 287 285 285 284
291 292 292 293 296 297 297 297 296 296 294 295 300 299 300 297 300 300 299 300 298 300 301 301 302 303 303 304 297 296 295 293 293 293 293 292 290 289 288 287 287 287 285 284
292 293 294 297 296 295 296 296 296 296 296 299 298 300 302 299 300 299 299 300 300 301 301 301 302 302 303 297 297 294 292 292 291 291 290 290 289 287 286 286 286 285 283 282
293 293 294 295 296 296 295 295 296 297 298 298 298 299 302 301 301 301 301 301 301 301 301 300 302 302 293 291 290 289 289 288 289 291 290 289 287 286 284 283 282 281 280 279
293 292 297 296 296 295 297 298 298 298 298 297 297 299 301 300 303 302 300 302 301 301 302 302 302 301 292 289 288 287 287 286 286 286 285 285 285 285 284 282 281 280 279 278
294 294 296 295 296 298 299 298 298 297 299 299 297 298 300 301 300 302 300 301 301 302 301 302 303 293 289 288 286 285 285 284 284 284 283 282 282 282 281 280 279 278 276 274
294 296 296 298 299 300 299 298 299 300 298 299 299 299 301 299 299 302 302 300 302 301 304 304 297 289 287 286 284 283 283 282 281 281 280 280 279 278 278 276 275 275 274 273
296 300 301 300 299 300 300 300 301 301 300 299 300 299 299 299 300 304 302 301 301 302 303 303 292 288 286 284 282 281 279 277 278 277 277 276 275 274 274 274 274 274 273 272
298 299 301 298 297 295 295 298 299 296 300 299 300 300 302 301 302 300 300 301 302 302 303 294 289 286 284 282 281 280 278 276 277 276 276 275 275 275 274 274 274 273 272 271
293 293 295 294 297 296 297 298 299 297 299 300 302 299 301 301 300 300 301 302 303 299 291 288 286 283 281 280 279 277 277 277 277 276 276 275 275 276 275 274 274 273 273 272
291 292 289 293 296 297 295 296 297 294 301 305 301 301 301 297 299 300 296 300 292 288 287 286 285 283 280 278 277 276 277 277 277 277 277 276 276 275 276 277 275 275 273 272

GFSNW_925_thetae_099.txt.gz
Theta_e
294 296 294 292 293 295 298 301 304 299 301 306 303 304 301 301 301 301 301 300 304 304 306 307 311 317 316 313 313 309 311 313 314 313 313 315 314 317 315 319 319 318 322 327
294 295 294 292 294 295 300 303 301 299 301 304 303 302 303 302 303 304 305 305 304 304 308 311 311 310 312 312 314 314 315 315 315 316 315 317 317 318 316 318 319 321 322 325
292 295 293 293 294 295 298 302 304 302 301 301 302 302 303 303 303 304 305 308 307 309 309 307 311 310 311 311 312 314 315 316 313 316 316 315 319 316 316 317 318 318 318 316
292 293 293 293 293 295 298 302 302 300 304 303 301 301 302 302 303 303 304 306 306 307 309 307 307 308 310 310 311 311 314 319 318 316 314 315 316 317 317 318 315 316 315 315
293 293 292 292 294 295 299 300 302 300 301 300 301 301 302 301 301 303 304 305 306 307 307 306 307 306 308 311 310 310 311 312 312 312 313 312 311 310 309 310 311 312 313 320
293 292 293 293 293 296 298 298 298 299 300 300 300 301 299 299 301 302 303 304 305 306 305 305 306 307 308 309 309 310 309 310 311 311 308 308 311 309 309 311 312 313 317 319
293 293 294 293 292 295 298 297 298 298 302 300 299 298 298 299 299 302 303 304 304 304 304 307 307 309 308 308 309 309 309 307 309 309 308 310 310 311 310 313 313 312 313 313
293 293 294 294 293 294 298 298 298 299 300 300 299 298 299 300 301 302 302 302 302 304 307 308 307 308 309 307 308 308 309 309 308 308 310 310 311 311 311 312 313 310 310 312
293 293 294 294 294 295 297 297 297 299 301 301 298 300 300 300 300 301 302 302 303 305 307 308 307 308 308 307 307 308 308 309 310 309 307 311 314 310 310 311 315 309 309 308
293 294 294 292 292 294 296 297 296 298 300 300 299 300 300 300 299 300 301 302 304 305 308 309 308 309 306 309 308 308 309 310 311 309 309 313 306 307 309 313 311 306 305 302
293 293 294 293 292 294 296 297 296 297 299 300 299 300 300 300 300 301 301 303 304 304 307 306 306 308 307 309 308 309 311 312 312 312 310 313 301 308 309 303 302 302 301 300
293 293 293 293 293 294 294 297 295 295 297 299 298 299 299 299 299 301 300 301 302 302 304 304 304 307 307 307 313 307 311 309 309 308 307 301 299 299 297 298 298 299 300 299
292 292 294 293 292 293 294 296 295 293 296 298 299 301 300 299 299 299 301 300 301 302 301 301 302 305 306 307 307 307 308 306 309 307 302 300 299 298 297 297 296 297 296 297
293 292 293 293 293 293 294 296 295 295 297 300 301 299 299 299 299 299 299 300 300 300 302 302 302 304 305 307 307 306 305 305 306 303 301 300 297 296 296 296 296 296 295 295
293 292 293 293 293 294 295 296 296 297 298 300 300 299 300 299 299 299 299 299 300 300 302 303 304 305 305 306 306 306 302 302 305 304 300 300 296 294 293 293 292 293 294 294
291 293 293 292 293 294 296 296 297 297 297 299 301 301 300 300 300 299 299 300 300 300 300 302 303 304 304 305 306 300 300 299 299 300 297 295 294 293 293 293 292 292 291 291
291 292 292 293 294 295 296 298 297 297 297 299 301 301 300 299 299 299 300 299 299 299 300 302 303 303 304 305 305 300 298 298 298 298 297 297 295 295 293 292 290 289 288 288
291 292 291 293 293 293 295 296 297 297 295 297 302 302 302 300 301 301 299 300 299 300 301 301 303 303 304 305 301 299 297 296 296 295 295 294 293 292 292 291 290 290 288 287
292 292 293 292 292 293 296 297 296 296 296 302 300 302 303 301 301 301 301 300 301 302 302 302 302 303 305 300 300 298 296 296 295 293 293 292 291 290 289 289 288 288 286 284
292 292 294 294 295 297 296 295 296 296 297 300 299 301 303 302 302 301 301 301 302 303 303 302 303 303 297 295 293 293 292 292 292 293 292 291 290 288 287 286 285 284 283 281
292 292 296 296 296 296 297 299 300 300 299 299 299 301 302 303 303 304 302 303 303 302 304 303 303 303 295 292 291 291 290 290 289 289 288 288 288 287 286 284 283 282 281 280
293 294 294 295 297 299 300 300 300 299 300 301 299 300 302 302 302 303 303 302 303 303 303 303 304 295 292 290 289 288 288 287 287 287 286 285 284 284 284 283 281 279 278 276
294 293 296 298 300 302 301 300 300 301 302 301 301 302 302 301 302 303 303 302 304 303 304 305 300 293 291 289 288 286 285 285 284 284 283 282 281 281 280 279 277 277 276 275
294 298 301 302 300 302 302 302 304 305 302 301 301 301 301 301 301 304 304 304 302 304 304 305 296 291 289 287 285 283 281 281 281 280 279 278 277 277 276 276 276 276 275 274
296 300 303 300 301 301 300 302 302 300 302 303 302 301 302 302 304 303 304 303 304 304 305 298 292 289 287 285 284 282 280 279 279 279 278 277 277 277 276 276 276 275 274 273
296 296 299 298 300 298 300 302 299 300 301 302 303 302 302 301 302 302 303 304 305 301 295 291 288 286 285 283 282 280 280 280 280 279 278 278 277 278 277 276 276 275 274 273
294 294 294 298 302 303 299 302 299 297 301 306 302 301 301 301 302 302 302 303 297 292 290 289 287 285 283 281 280 279 280 280 280 279 279 278 278 278 278 279 277 277 276 274

GFSNW_925_thetae_102.txt.gz
Theta_e
296 296 296 292 293 295 298 303 307 301 303 308 307 305 303 304 304 305 306 306 306 308 308 309 310 310 313 311 315 315 312 316 314 312 317 316 315 317 317 324 317 323 326 327
295 296 295 292 293 295 301 305 305 302 303 306 304 303 304 304 304 304 306 307 308 308 308 309 311 309 307 311 315 316 316 315 320 315 314 317 317 317 318 319 321 322 325 328
295 295 295 292 293 295 299 304 307 304 303 304 303 303 304 304 304 304 305 306 308 309 310 306 309 309 309 311 313 314 317 317 318 318 316 319 321 320 320 319 322 320 321 320
295 295 295 293 293 295 299 304 306 302 306 304 302 303 303 303 303 303 304 305 305 306 310 306 307 307 310 309 311 312 314 318 317 317 317 316 319 320 320 317 315 321 319 323
294 294 294 292 293 296 301 300 305 302 302 302 302 301 304 302 301 302 304 304 305 305 305 305 306 307 309 310 311 310 311 317 313 317 317 316 314 312 312 312 314 316 321 321
295 294 293 291 293 296 299 299 300 301 303 302 301 302 300 300 300 302 303 303 305 305 303 305 306 308 309 310 312 311 311 312 315 311 310 311 313 311 314 313 312 315 318 317
294 293 293 293 292 296 300 298 299 300 304 301 300 299 299 300 301 301 302 303 303 303 304 307 309 308 309 308 308 308 311 311 312 309 309 317 313 313 313 312 311 310 311 312
293 294 293 294 292 293 298 299 299 301 302 302 301 300 300 301 301 302 302 303 303 304 306 308 310 309 311 308 307 308 308 311 313 315 313 313 313 311 310 315 311 309 309 308
293 293 293 295 293 292 296 299 299 300 301 303 300 300 302 301 301 301 301 303 303 305 307 309 310 308 307 308 308 308 308 311 315 314 312 317 309 306 307 309 311 306 306 305
293 293 293 294 293 295 297 299 298 299 301 301 301 301 301 301 301 301 302 301 304 304 307 309 310 313 307 310 309 310 312 313 314 314 313 311 303 305 306 313 307 304 302 301
293 294 293 293 292 294 296 298 298 298 299 300 300 300 301 301 300 302 301 303 304 304 307 305 306 307 307 309 309 309 309 312 311 312 313 312 301 305 306 302 301 302 301 300
293 293 293 294 293 294 294 297 296 296 297 299 298 299 299 299 300 301 301 302 303 303 304 304 303 306 309 307 312 307 311 308 307 306 305 301 299 299 299 299 298 300 299 298
293 293 293 294 293 294 294 296 296 295 296 298 299 301 301 301 301 301 302 303 301 302 302 303 303 304 306 309 308 308 308 306 307 306 302 300 299 298 298 298 298 297 297 298
292 293 292 294 293 293 293 296 296 296 297 300 301 300 300 300 300 301 301 301 301 301 301 303 303 303 305 307 307 308 306 306 306 303 301 299 297 296 296 296 296 296 296 295
292 292 293 294 293 293 293 295 296 297 299 300 300 299 300 301 301 301 301 301 301 301 301 303 303 304 305 306 306 305 302 301 303 302 300 299 296 294 294 294 294 294 294 294
293 293 292 293 292 293 294 297 297 298 298 300 301 300 302 301 301 301 301 300 300 301 301 302 302 303 305 306 307 301 300 299 299 300 296 295 295 294 294 293 292 292 292 291
292 292 293 292 293 294 296 298 296 297 298 299 300 302 302 300 300 300 300 300 301 300 301 301 302 303 304 306 306 300 299 299 298 298 297 297 296 295 294 293 292 291 290 289
292 292 292 292 293 294 295 296 296 298 297 298 300 302 303 300 301 301 301 300 300 300 301 301 302 303 305 306 301 299 298 297 296 296 296 295 294 294 293 292 292 291 289 287
291 292 292 293 293 294 295 296 296 296 296 300 301 301 304 301 302 302 301 301 302 301 303 302 303 304 305 301 300 298 297 296 296 295 294 293 292 291 290 289 288 287 285 284
292 293 292 294 294 294 296 297 297 296 296 299 301 301 303 302 303 303 302 302 302 305 303 303 304 303 297 296 296 294 294 293 294 294 294 292 291 289 287 286 285 284 283 282
293 293 295 295 296 296 296 299 299 299 300 301 300 301 303 303 303 303 303 304 304 303 304 303 305 303 296 294 293 292 292 291 291 290 289 289 289 288 287 285 283 282 281 279
293 294 293 295 296 297 301 299 300 301 300 302 301 300 302 303 304 305 303 302 304 303 304 303 304 296 293 292 290 290 289 288 288 288 286 286 285 285 284 283 280 279 278 277
294 292 295 297 298 302 302 301 300 301 302 304 303 303 303 303 303 301 303 301 304 304 304 305 299 294 291 290 289 287 286 286 285 284 283 282 281 281 280 279 278 277 276 276
295 297 300 301 300 302 303 303 305 306 305 304 302 302 302 302 301 303 303 304 303 304 305 304 296 292 289 287 286 284 282 282 281 280 279 278 278 277 277 276 276 276 275 274
295 297 302 301 303 302 303 305 303 302 303 303 302 302 302 303 304 303 303 303 304 304 305 298 292 289 287 286 284 282 281 280 280 279 278 277 277 278 277 277 277 275 274 273
295 297 301 301 302 299 302 300 301 302 302 304 303 303 303 301 302 303 304 304 305 301 295 291 289 287 286 284 282 281 281 281 281 279 279 278 278 279 278 277 276 275 275 274
296 298 296 299 300 300 299 299 301 300 303 305 303 302 301 302 301 301 304 303 298 293 291 289 287 286 284 282 281 281 281 281 281 280 280 279 279 278 278 278 277 276 276 275

GFSNW_925_thetae_105.txt.gz
Theta_e
297 296 297 294 292 294 296 301 302 302 303 301 299 300 303 303 303 304 305 306 307 307 308 307 306 307 308 307 310 315 314 315 316 315 315 314 316 317 319 321 326 324 325 322
296 297 295 294 292 295 298 301 301 302 303 298 297 303 304 303 303 304 305 306 306 307 308 305 306 305 306 308 311 313 314 316 318 320 316 316 318 317 317 318 320 324 323 320
295 296 295 293 292 295 297 301 300 302 301 301 303 303 304 304 303 303 304 305 305 306 306 306 305 305 307 309 310 313 314 317 317 319 321 318 320 320 320 320 322 322 324 320
295 296 294 292 292 295 298 298 298 301 299 300 302 302 303 303 303 302 303 304 304 304 309 303 303 305 307 309 311 310 311 315 315 317 317 316 318 318 318 319 321 323 319 318
295 296 293 293 292 295 298 293 301 300 298 301 301 302 303 302 301 301 303 302 303 303 304 303 303 304 307 311 311 310 311 315 314 319 313 315 316 313 313 315 319 319 317 316
295 295 293 292 292 296 300 300 299 298 301 301 300 300 300 300 300 301 301 300 303 303 303 302 303 304 306 309 311 310 312 312 314 317 313 315 317 313 312 311 311 313 315 313
295 295 292 292 293 296 298 299 299 296 298 300 300 300 299 300 300 301 302 302 302 302 302 303 305 308 310 310 310 309 309 310 313 311 313 319 310 309 310 308 307 308 309 305
294 292 292 293 292 296 298 300 299 298 296 300 301 300 301 302 301 300 301 301 301 300 303 306 309 309 309 309 309 308 308 311 313 315 316 315 310 305 306 311 307 305 305 305
293 293 293 294 292 293 297 299 299 298 295 300 302 299 300 299 298 299 301 300 300 302 303 307 311 311 308 311 311 308 310 311 313 314 315 315 306 302 302 306 305 304 301 300
293 292 292 294 294 293 297 298 298 299 294 298 300 299 300 299 299 299 300 300 302 301 300 306 308 310 308 310 311 310 308 308 310 311 313 307 301 301 302 309 304 303 300 297
293 292 293 293 293 294 297 298 297 298 298 297 300 300 300 299 298 297 298 298 299 298 302 303 303 306 306 309 309 309 308 310 307 307 308 306 299 301 302 302 300 301 300 297
292 293 293 292 292 293 296 297 296 295 295 295 297 296 296 299 299 299 298 299 302 301 298 300 301 303 303 307 311 307 307 307 304 304 303 300 298 299 299 299 299 299 299 296
292 293 294 293 292 293 295 297 296 295 295 295 296 298 301 300 300 301 298 301 301 299 299 296 298 303 304 307 308 309 307 306 301 303 301 299 298 298 297 298 297 296 296 297
292 293 293 293 292 292 293 296 296 296 296 294 300 301 300 300 300 301 301 300 300 299 299 299 297 299 303 305 307 305 303 303 304 302 300 297 296 295 296 295 296 296 294 293
292 292 292 294 292 291 291 294 296 296 298 298 296 298 299 300 300 301 301 301 300 298 298 299 300 301 302 303 305 302 300 300 303 300 300 298 296 295 294 294 294 293 292 290
292 291 292 293 292 291 294 293 295 295 297 297 297 299 301 301 300 301 300 300 298 298 298 298 298 301 302 300 300 300 300 298 299 297 296 294 293 294 294 292 291 290 289 288
292 292 292 293 291 292 296 296 296 297 298 296 298 298 301 300 300 299 299 300 299 298 298 298 299 300 302 299 302 300 299 298 297 297 296 296 296 295 294 292 291 289 287 286
291 292 292 291 292 292 294 295 296 298 297 296 298 297 300 300 298 298 298 297 297 297 297 298 299 300 302 302 299 298 297 297 297 296 295 295 294 291 290 288 289 286 285 283
292 293 291 292 293 293 294 296 296 295 296 297 298 299 297 299 299 300 298 298 295 298 295 298 299 296 300 299 299 297 296 296 295 295 294 291 291 288 286 286 285 283 282 281
292 292 292 290 292 293 296 296 296 296 297 297 298 297 296 300 297 301 298 297 297 302 300 299 295 298 297 295 294 294 293 292 292 294 293 292 288 286 284 283 282 282 280 278
292 291 292 294 294 296 295 297 297 296 297 296 297 297 298 300 297 297 296 299 297 300 303 298 298 299 295 293 291 291 290 290 288 287 286 286 287 286 284 283 281 279 278 277
293 293 293 296 296 296 298 296 294 297 297 298 296 297 299 299 300 301 299 298 296 298 299 297 295 295 291 290 289 286 286 285 285 284 283 283 283 282 281 279 278 277 276 276
293 292 294 296 296 299 298 297 297 298 295 297 296 298 299 299 299 297 297 297 294 297 300 299 296 292 290 288 284 283 283 283 282 281 280 279 279 279 278 277 277 276 276 275
293 295 297 297 297 295 295 296 296 296 295 296 296 296 296 293 294 299 300 296 297 296 295 301 293 290 286 285 283 282 279 279 278 277 277 277 276 276 276 276 276 276 274 273
294 295 298 295 296 299 299 297 296 295 293 295 295 294 297 298 296 298 300 298 296 298 301 294 290 287 284 283 281 279 277 277 278 277 277 277 277 277 277 277 276 275 274 273
293 294 296 299 299 299 299 298 299 295 293 294 296 297 299 299 299 300 295 301 302 298 292 289 287 284 281 279 278 279 280 281 279 278 278 278 278 278 277 277 276 275 275 275
295 296 295 294 298 298 298 297 296 297 296 298 296 297 301 297 299 300 300 299 295 291 289 287 285 282 278 279 281 281 281 280 280 279 279 278 279 278 278 277 277 277 277 277

GFSNW_925_thetae_108.txt.gz
Theta_e
297 297 297 296 293 294 296 300 300 302 302 298 292 298 302 303 303 303 304 305 305 305 303 308 305 303 307 305 308 312 312 314 317 316 315 314 316 317 317 317 319 321 322 315
297 297 296 295 293 296 300 300 300 301 302 297 295 300 304 303 302 302 304 305 305 304 302 303 301 303 306 305 307 312 312 316 315 316 317 316 318 316 317 319 318 322 322 315
297 296 296 294 293 296 298 299 300 300 298 296 300 301 303 303 302 302 302 303 302 303 301 305 301 301 304 304 307 312 311 314 314 315 315 312 318 320 319 319 322 319 319 315
296 296 295 294 293 295 299 296 299 300 298 298 300 300 301 302 301 300 300 301 301 302 300 301 301 302 303 305 309 310 311 313 313 316 315 316 315 316 318 321 317 317 315 312
296 296 295 292 293 296 299 296 300 296 297 301 299 300 301 302 300 299 300 300 300 301 302 301 302 301 304 306 308 310 310 313 312 316 314 313 313 311 313 315 314 314 311 307
295 295 294 292 294 297 298 297 298 296 299 298 297 297 299 298 299 300 300 299 300 301 302 300 300 301 303 305 306 309 310 311 314 316 314 314 310 309 309 308 309 311 312 307
295 294 292 292 295 298 298 299 296 294 296 298 298 299 298 300 301 300 301 300 301 300 299 300 303 305 306 307 309 309 311 309 313 314 315 310 308 305 306 305 304 305 306 303
295 293 292 292 295 297 299 299 297 294 293 298 301 300 301 299 299 299 301 300 299 298 300 304 307 307 307 310 309 309 309 310 314 316 315 311 307 303 303 307 305 302 303 302
292 292 293 292 296 297 298 298 299 294 294 298 300 299 299 297 297 297 300 299 299 299 301 304 310 312 308 312 311 308 308 308 313 314 311 312 305 300 301 302 304 301 298 298
292 292 293 292 292 295 298 297 298 296 291 295 298 298 298 298 297 297 297 298 300 298 298 303 306 307 307 311 310 309 308 308 307 309 309 306 299 299 301 308 303 301 297 295
292 292 293 293 292 295 297 296 297 296 292 294 299 299 299 298 296 296 296 296 297 297 299 301 302 305 304 308 308 308 307 308 305 306 305 304 299 300 301 301 300 300 297 295
292 292 293 292 292 296 297 296 296 295 292 292 296 296 296 297 298 296 296 298 300 299 296 297 300 302 302 306 306 307 306 304 303 303 302 299 299 299 299 299 299 299 297 295
292 293 292 291 291 294 296 296 295 294 288 291 294 297 300 299 297 298 297 297 299 298 295 293 297 302 302 306 309 305 306 303 300 300 300 298 298 297 297 296 296 294 295 296
292 293 293 292 291 293 295 296 295 295 295 290 296 299 299 300 300 300 300 299 299 297 296 296 295 299 301 302 306 302 300 301 302 300 298 297 295 295 294 294 294 291 289 289
293 293 293 292 291 291 294 295 295 296 296 296 294 296 299 299 300 300 300 300 298 296 296 294 297 299 301 301 303 300 300 300 302 299 299 298 296 294 294 291 290 290 288 287
292 292 293 293 291 290 291 287 295 294 296 296 294 296 298 300 300 300 299 299 296 296 297 295 295 298 300 298 301 300 299 298 298 296 295 290 290 291 293 290 289 288 286 285
291 292 293 292 291 294 295 292 296 296 297 294 295 295 298 300 299 297 296 298 296 296 296 297 297 298 301 299 300 299 298 297 296 294 295 295 294 290 290 289 286 285 284 284
292 292 293 292 290 292 294 295 296 298 297 294 297 295 300 299 296 297 295 295 294 295 296 296 297 298 300 300 299 298 298 298 297 297 293 291 289 288 286 285 284 283 282 281
292 292 291 291 292 292 294 296 296 296 295 296 297 297 299 297 297 296 296 295 292 295 292 296 298 296 297 297 296 295 294 295 295 293 291 289 287 286 285 284 283 282 281 279
292 291 290 285 292 294 296 295 294 295 296 296 296 293 293 297 293 295 297 293 294 298 299 296 299 298 296 294 292 292 290 290 292 292 291 287 285 284 283 282 281 280 278 276
292 290 289 293 294 295 293 295 295 296 296 295 294 294 296 296 295 295 293 293 293 299 302 296 296 297 293 290 289 287 287 286 285 285 284 286 284 283 282 281 280 278 277 276
291 292 293 294 294 295 296 295 294 295 296 294 294 294 296 296 297 297 296 296 293 297 297 298 290 291 290 288 286 285 284 283 283 283 282 282 282 281 280 279 277 276 276 276
293 292 293 295 294 296 294 292 294 290 291 292 292 296 299 296 295 298 293 292 292 295 297 296 291 290 288 285 284 283 282 281 281 280 279 279 278 278 277 276 276 275 275 275
291 293 295 294 295 295 291 292 291 291 290 292 292 292 294 290 291 297 297 293 295 292 292 297 288 289 286 284 283 281 277 277 276 276 276 276 276 276 277 276 276 275 275 274
291 293 290 294 292 296 297 296 292 291 289 292 292 293 293 291 294 297 299 298 292 294 293 286 288 286 283 282 280 277 275 275 275 276 275 276 276 276 276 276 276 275 274 273
291 292 293 294 298 298 299 295 293 289 289 289 292 294 292 297 295 300 297 298 296 292 289 287 285 282 278 277 276 277 277 277 277 277 277 277 277 277 277 276 276 275 275 275
292 293 294 294 294 298 298 296 294 291 292 295 293 294 294 294 293 298 291 297 292 289 287 283 281 279 275 276 277 280 279 278 277 277 277 277 278 278 277 276 277 277 276 276

GFSNW_925_thetae_111.txt.gz
Theta_e
297 297 298 296 296 294 297 300 301 301 302 301 294 300 301 302 302 302 303 304 303 301 299 305 302 303 306 305 305 307 311 314 314 315 315 314 315 315 316 315 317 319 317 313
297 297 297 296 295 295 300 300 300 300 302 301 298 300 303 302 302 302 303 304 303 300 297 302 300 299 303 303 303 310 311 313 315 312 314 314 316 315 317 318 318 318 318 313
297 297 296 296 295 298 301 299 301 300 298 296 300 301 302 302 301 301 301 302 300 301 299 303 300 299 301 301 303 308 310 313 314 315 314 315 316 317 318 318 319 315 313 310
297 296 295 296 295 298 300 297 300 300 301 299 299 299 301 301 301 299 299 300 299 300 298 301 301 300 300 302 306 308 310 312 314 312 312 310 311 314 319 318 314 313 310 307
296 295 295 294 295 297 299 298 300 295 300 301 299 300 300 301 300 298 298 299 299 299 300 301 301 300 301 303 305 307 310 311 311 313 309 308 308 308 308 313 311 309 306 304
296 295 295 294 295 298 297 296 297 297 298 298 297 298 300 299 298 299 299 300 300 300 300 299 299 299 301 301 303 305 310 311 313 314 313 311 307 306 306 306 305 309 308 303
296 295 294 293 296 299 298 297 295 296 298 298 299 299 298 300 300 299 300 299 299 299 298 298 300 301 301 302 304 305 309 310 314 314 314 310 306 303 306 303 302 304 302 299
295 295 292 296 298 299 298 298 297 295 296 298 299 299 299 298 298 299 300 299 298 297 298 302 306 306 305 309 309 308 308 310 314 316 311 309 306 302 302 305 303 300 302 299
294 293 293 296 298 298 298 298 298 294 297 298 299 298 298 296 297 297 298 298 297 297 300 303 307 310 307 309 310 307 308 306 311 313 311 310 303 299 300 301 304 299 298 297
293 292 293 296 297 298 297 297 298 295 293 295 297 296 297 296 295 296 296 297 298 296 296 301 303 303 306 310 309 308 307 307 307 309 308 305 299 300 301 307 303 299 296 294
293 292 292 294 297 297 297 295 296 295 292 294 298 299 298 296 294 294 295 294 295 295 297 299 300 303 305 308 307 309 305 307 304 305 303 303 297 300 301 300 299 297 295 293
293 293 292 293 297 296 296 295 295 295 291 293 296 296 297 298 296 294 295 297 299 297 295 297 297 301 302 305 309 306 305 302 303 302 300 299 299 298 298 297 296 299 295 293
292 293 292 294 296 296 295 295 295 294 288 291 294 298 299 297 296 298 296 295 298 296 293 292 294 300 301 305 306 304 303 302 300 298 299 297 297 294 295 296 292 291 295 295
293 292 291 293 295 296 295 295 295 295 291 292 297 296 298 298 299 298 299 298 298 296 294 295 292 297 300 303 305 301 300 301 300 298 297 295 294 293 293 292 290 288 288 288
294 293 291 292 294 295 295 295 295 296 294 294 294 295 298 299 300 299 299 299 296 294 295 293 295 297 299 301 301 301 299 300 301 296 297 296 293 293 291 290 289 288 286 285
294 293 292 290 291 294 293 287 294 294 296 291 293 294 296 299 299 299 298 297 294 294 295 294 293 295 298 300 300 300 298 296 297 297 293 290 291 291 289 288 287 285 285 284
293 294 292 291 292 292 293 291 295 295 296 291 292 294 296 299 297 295 296 298 295 295 294 295 295 297 299 298 300 299 297 295 294 293 294 293 289 289 287 286 285 284 283 282
294 293 291 290 294 294 295 296 296 297 295 292 291 297 300 298 297 296 293 294 293 294 294 294 296 297 297 297 299 298 297 297 296 293 291 289 286 286 285 284 283 282 282 281
293 292 290 290 290 292 295 296 296 296 294 290 290 293 300 295 296 294 294 293 291 293 291 295 296 297 296 296 297 296 296 295 293 291 290 288 287 285 284 283 282 281 280 279
291 291 290 284 291 296 295 294 291 293 294 295 293 291 294 296 291 291 296 291 293 297 297 295 299 297 294 291 291 290 289 290 291 289 288 286 285 284 283 281 280 279 277 275
292 288 292 292 295 294 292 294 294 292 294 295 293 292 296 295 294 294 292 291 293 298 299 297 293 296 290 289 288 287 286 286 285 285 286 286 284 283 282 280 279 277 276 275
291 292 293 294 293 294 294 294 295 295 295 292 292 293 294 296 294 293 294 296 292 296 297 299 291 288 287 287 287 285 284 283 283 283 283 283 282 281 280 278 277 276 275 275
292 293 293 295 294 295 293 291 292 293 290 289 291 295 294 294 295 297 297 292 291 296 294 294 288 288 287 286 284 282 281 281 281 280 280 279 279 278 277 275 275 275 275 275
289 288 294 294 294 294 289 290 289 290 288 290 290 294 298 289 291 288 290 290 296 294 291 296 288 287 286 284 283 281 277 276 276 276 277 276 276 276 276 276 275 275 275 275
288 289 288 293 290 291 295 295 293 293 286 291 292 292 292 288 293 297 298 300 295 292 292 285 282 285 283 282 280 276 275 273 273 275 275 275 276 276 276 276 276 275 275 274
290 291 291 292 295 296 298 296 296 292 286 292 292 293 289 290 291 299 298 298 293 289 283 284 283 282 277 276 276 275 275 276 275 276 276 276 276 276 276 276 276 276 275 275
290 289 289 293 292 292 298 296 295 291 290 293 292 292 292 292 297 298 293 294 286 286 286 281 280 279 275 275 275 276 276 276 276 277 277 277 277 277 277 277 277 277 277 277

GFSNW_925_thetae_114.txt.gz
Theta_e
304 302 300 298 295 293 296 299 301 300 302 300 295 300 300 302 302 302 303 302 302 301 298 301 297 300 304 303 303 304 307 313 311 311 310 313 314 315 315 318 316 318 316 309
302 300 298 296 293 294 299 299 300 299 300 300 301 300 302 301 302 301 302 303 302 298 296 294 298 297 301 303 301 307 310 312 313 311 312 313 314 314 314 316 318 315 316 310
300 299 297 295 293 296 301 300 301 298 298 297 301 302 302 302 301 301 301 301 300 300 299 300 297 297 301 300 301 305 309 314 314 311 312 310 310 315 317 317 315 311 309 307
299 297 296 295 295 298 300 298 299 300 302 300 300 301 301 301 301 299 298 300 298 299 297 299 301 300 299 300 304 305 310 313 311 310 308 307 306 311 311 310 309 308 306 303
298 296 295 295 296 299 298 299 299 298 300 300 300 302 301 301 300 297 298 299 299 298 299 299 300 300 300 300 303 303 308 310 311 313 312 311 305 305 305 308 308 305 303 301
295 296 296 296 297 299 297 295 296 299 299 299 299 300 300 301 297 299 298 298 299 299 298 298 297 298 299 299 301 303 307 311 312 315 310 309 305 304 303 303 304 307 304 301
295 296 296 296 297 299 298 296 296 299 299 299 299 300 298 298 298 298 299 298 298 298 297 297 298 298 299 299 300 302 307 311 313 315 312 309 304 302 303 301 300 302 299 297
295 295 296 295 298 299 299 297 297 297 298 298 298 299 299 297 297 298 299 298 297 296 298 301 305 305 305 307 308 308 306 310 313 315 311 308 305 301 301 303 301 299 301 299
295 295 297 298 299 299 299 297 297 296 299 299 298 297 297 297 296 296 298 297 296 296 299 303 305 307 306 308 308 306 306 305 310 311 310 308 301 298 300 301 303 297 296 295
294 297 298 298 298 298 298 296 297 297 296 296 296 296 297 295 294 294 295 297 297 295 295 300 303 302 304 306 308 308 305 307 307 308 307 304 298 299 301 306 301 296 294 292
295 296 298 298 297 297 297 295 296 296 294 294 297 298 296 295 293 292 293 293 294 294 295 299 299 301 303 303 307 308 303 305 304 306 305 305 298 300 301 300 297 295 293 292
294 295 297 297 296 296 297 295 295 296 293 294 296 296 297 296 294 293 294 295 298 296 295 296 297 299 299 304 308 305 305 302 303 301 300 298 297 297 296 295 298 295 294 292
293 295 297 296 296 295 296 295 294 295 291 293 295 297 298 296 298 298 296 295 297 295 292 291 293 298 299 304 305 304 303 301 300 299 298 297 295 294 294 292 291 293 294 291
293 295 296 295 295 295 295 295 295 295 291 296 297 296 297 298 296 297 298 297 296 294 292 294 292 297 298 302 303 301 300 300 300 298 296 295 294 292 291 290 288 287 286 286
292 294 296 295 295 295 295 295 296 296 294 295 295 295 297 298 298 298 299 298 294 293 295 292 294 295 298 300 299 300 299 300 301 299 297 295 294 292 291 289 287 286 285 284
292 293 295 295 294 294 293 289 294 296 295 293 295 293 295 297 298 298 297 296 293 293 294 294 293 294 297 298 299 299 297 296 297 297 293 291 291 289 288 286 285 284 283 282
292 290 291 294 294 293 293 291 294 296 296 291 293 296 296 298 296 295 295 296 292 293 293 294 295 296 297 298 299 298 296 294 293 293 292 291 289 288 286 285 284 283 281 280
291 292 293 293 294 295 295 296 296 296 294 291 292 297 299 298 297 297 291 294 292 292 293 293 295 296 298 296 299 298 296 295 295 292 291 288 286 285 284 283 282 282 281 280
290 293 293 292 292 293 295 296 295 295 293 291 289 296 299 296 295 293 293 292 291 292 290 294 295 294 297 296 299 298 297 295 292 289 288 287 286 284 284 283 282 281 280 278
290 290 289 286 293 295 295 294 291 290 291 292 291 290 298 295 292 290 293 290 292 295 297 294 298 296 293 291 289 289 289 290 289 288 287 286 285 284 282 281 280 279 276 275
291 289 291 293 295 293 291 289 290 291 292 292 292 292 297 294 294 294 291 290 292 297 298 297 293 296 293 288 288 286 287 287 286 287 287 287 285 283 281 280 278 277 276 275
291 292 293 294 293 292 293 294 294 294 294 292 292 292 293 298 293 292 294 294 292 296 297 299 291 287 288 287 287 286 284 284 283 284 283 283 282 281 279 278 277 276 275 274
292 292 291 291 290 292 294 292 293 293 289 288 290 294 293 294 295 294 297 293 290 295 293 292 289 287 287 286 285 283 282 282 281 281 280 280 279 279 278 276 275 275 275 275
288 287 291 290 293 294 288 289 288 288 287 289 289 293 297 289 293 282 288 289 297 297 291 295 284 286 285 284 283 280 276 277 277 276 277 276 276 275 276 276 275 275 275 274
290 288 292 293 290 292 291 289 293 293 285 289 291 291 291 287 291 295 296 300 294 291 291 285 280 284 284 282 281 278 275 273 273 275 274 274 275 275 275 275 275 275 274 274
289 291 289 291 294 294 297 296 296 291 286 292 292 291 288 289 289 292 294 297 291 288 282 281 280 281 279 278 277 275 275 275 275 275 275 275 276 276 276 276 276 276 276 276
289 288 287 291 292 291 296 296 296 290 295 290 291 291 291 291 290 293 292 295 285 284 286 282 278 281 277 275 275 275 275 275 275 275 276 276 276 277 277 277 277 277 277 278